Observation data for Claude 12 Southwest on 09/10/2017      Previous  Date       Current Mesonet Observations  Soil Data  Daily Summary Page  Observations in Plain Language
KCL1 100500Z 13008KT 18/09 A3024 RMK A01 T01830089  RH  054%=      5-min Rain = 0
KCL1 100501Z 13008KT 18/09 A3024 RMK A01 T01830089  RH  054%=      5-min Rain = 0
KCL1 100502Z 13007KT 18/09 A3024 RMK A01 T01830089  RH  054%=      5-min Rain = 0
KCL1 100503Z 13008KT 18/09 A3024 RMK A01 T01830089  RH  054%=      5-min Rain = 0
KCL1 100504Z 13008KT 18/09 A3024 RMK A01 T01820089  RH  055%=      5-min Rain = 0
KCL1 100505Z 13008KT 18/09 A3024 RMK A01 T01820089  RH  055%=      5-min Rain = 0
KCL1 100506Z 13008KT 18/09 A3024 RMK A01 T01820089  RH  055%=      5-min Rain = 0
KCL1 100507Z 13009KT 18/09 A3024 RMK A01 T01820090  RH  055%=      5-min Rain = 0
KCL1 100508Z 13008KT 18/09 A3024 RMK A01 T01820089  RH  055%=      5-min Rain = 0
KCL1 100509Z 13008KT 18/09 A3024 RMK A01 T01820089  RH  055%=      5-min Rain = 0
KCL1 100510Z 13008KT 18/09 A3024 RMK A01 T01820090  RH  055%=      5-min Rain = 0
KCL1 100511Z 13010KT 18/09 A3024 RMK A01 T01820089  RH  055%=      5-min Rain = 0
KCL1 100512Z 13008KT 18/09 A3024 RMK A01 T01820089  RH  055%=      5-min Rain = 0
KCL1 100513Z 13008KT 18/09 A3024 RMK A01 T01820089  RH  054%=      5-min Rain = 0
KCL1 100514Z 13008KT 18/09 A3024 RMK A01 T01830089  RH  055%=      5-min Rain = 0
KCL1 100515Z 13009KT 18/09 A3024 RMK A01 T01830090  RH  055%=      5-min Rain = 0
KCL1 100516Z 13008KT 18/09 A3024 RMK A01 T01820089  RH  055%=      5-min Rain = 0
KCL1 100517Z 13009KT 18/09 A3024 RMK A01 T01820090  RH  055%=      5-min Rain = 0
KCL1 100518Z 13010KT 18/09 A3024 RMK A01 T01820089  RH  055%=      5-min Rain = 0
KCL1 100519Z 13009KT 18/09 A3024 RMK A01 T01820089  RH  055%=      5-min Rain = 0
KCL1 100520Z 13009KT 18/09 A3024 RMK A01 T01810089  RH  055%=      5-min Rain = 0
KCL1 100521Z 13008KT 18/09 A3024 RMK A01 T01820089  RH  055%=      5-min Rain = 0
KCL1 100522Z 13009KT 18/09 A3024 RMK A01 T01820089  RH  055%=      5-min Rain = 0
KCL1 100523Z 13009KT 18/09 A3024 RMK A01 T01820089  RH  055%=      5-min Rain = 0
KCL1 100524Z 14010KT 18/09 A3024 RMK A01 T01820089  RH  055%=      5-min Rain = 0
KCL1 100525Z 14008KT 18/09 A3024 RMK A01 T01820089  RH  055%=      5-min Rain = 0
KCL1 100526Z 14008KT 18/09 A3024 RMK A01 T01820089  RH  055%=      5-min Rain = 0
KCL1 100527Z 14008KT 18/09 A3024 RMK A01 T01820089  RH  055%=      5-min Rain = 0
KCL1 100528Z 14010KT 18/09 A3025 RMK A01 T01810089  RH  055%=      5-min Rain = 0
KCL1 100529Z 14007KT 18/09 A3025 RMK A01 T01810089  RH  055%=      5-min Rain = 0
KCL1 100530Z 14008KT 18/09 A3024 RMK A01 T01810089  RH  055%=      5-min Rain = 0
KCL1 100531Z 13009KT 18/09 A3024 RMK A01 T01810089  RH  055%=      5-min Rain = 0
KCL1 100532Z 14008KT 18/09 A3024 RMK A01 T01810089  RH  055%=      5-min Rain = 0
KCL1 100533Z 13008KT 18/09 A3024 RMK A01 T01810089  RH  055%=      5-min Rain = 0
KCL1 100534Z 14007KT 18/09 A3024 RMK A01 T01810090  RH  055%=      5-min Rain = 0
KCL1 100535Z 14008KT 18/09 A3025 RMK A01 T01800090  RH  055%=      5-min Rain = 0
KCL1 100536Z 14008KT 18/09 A3025 RMK A01 T01800090  RH  055%=      5-min Rain = 0
KCL1 100537Z 14008KT 18/09 A3025 RMK A01 T01800090  RH  056%=      5-min Rain = 0
KCL1 100538Z 14008KT 18/09 A3025 RMK A01 T01800089  RH  055%=      5-min Rain = 0
KCL1 100539Z 13007KT 18/09 A3025 RMK A01 T01800090  RH  055%=      5-min Rain = 0
KCL1 100540Z 14007KT 18/09 A3025 RMK A01 T01800090  RH  056%=      5-min Rain = 0
KCL1 100541Z 13007KT 18/09 A3025 RMK A01 T01790090  RH  056%=      5-min Rain = 0
KCL1 100542Z 13008KT 18/09 A3025 RMK A01 T01790090  RH  056%=      5-min Rain = 0
KCL1 100543Z 14008KT 18/09 A3025 RMK A01 T01790090  RH  056%=      5-min Rain = 0
KCL1 100544Z 14008KT 18/09 A3025 RMK A01 T01790090  RH  056%=      5-min Rain = 0
KCL1 100545Z 14007KT 18/09 A3025 RMK A01 T01790090  RH  056%=      5-min Rain = 0
KCL1 100546Z 14008KT 18/09 A3025 RMK A01 T01790090  RH  056%=      5-min Rain = 0
KCL1 100547Z 14008KT 18/09 A3025 RMK A01 T01780090  RH  056%=      5-min Rain = 0
KCL1 100548Z 14008KT 18/09 A3025 RMK A01 T01780090  RH  056%=      5-min Rain = 0
KCL1 100549Z 14007KT 18/09 A3025 RMK A01 T01780090  RH  056%=      5-min Rain = 0
KCL1 100550Z 14008KT 18/09 A3025 RMK A01 T01780090  RH  056%=      5-min Rain = 0
KCL1 100551Z 13008KT 18/09 A3025 RMK A01 T01770090  RH  057%=      5-min Rain = 0
KCL1 100552Z 14007KT 18/09 A3025 RMK A01 T01780090  RH  057%=      5-min Rain = 0
KCL1 100553Z 14007KT 18/09 A3025 RMK A01 T01770090  RH  057%=      5-min Rain = 0
KCL1 100554Z 14007KT 18/09 A3025 RMK A01 T01770090  RH  057%=      5-min Rain = 0
KCL1 100555Z 13007KT 18/09 A3025 RMK A01 T01760090  RH  057%=      5-min Rain = 0
KCL1 100556Z 13007KT 18/09 A3025 RMK A01 T01760090  RH  057%=      5-min Rain = 0
KCL1 100557Z 13007KT 18/09 A3025 RMK A01 T01750091  RH  057%=      5-min Rain = 0
KCL1 100558Z 13007KT 18/09 A3025 RMK A01 T01750091  RH  058%=      5-min Rain = 0
KCL1 100559Z 13007KT 18/09 A3025 RMK A01 T01750091  RH  058%=      5-min Rain = 0
KCL1 100600Z 13007KT 17/09 A3025 RMK A01 T01740090  RH  058%=      5-min Rain = 0
KCL1 100601Z 13007KT 17/09 A3025 RMK A01 T01740091  RH  058%=      5-min Rain = 0
KCL1 100602Z 13007KT 17/09 A3025 RMK A01 T01740091  RH  058%=      5-min Rain = 0
KCL1 100603Z 13007KT 17/09 A3025 RMK A01 T01730091  RH  058%=      5-min Rain = 0
KCL1 100604Z 14006KT 17/09 A3025 RMK A01 T01730091  RH  058%=      5-min Rain = 0
KCL1 100605Z 13007KT 17/09 A3025 RMK A01 T01730090  RH  058%=      5-min Rain = 0
KCL1 100606Z 14006KT 17/09 A3025 RMK A01 T01730091  RH  058%=      5-min Rain = 0
KCL1 100607Z 13007KT 17/09 A3025 RMK A01 T01730091  RH  059%=      5-min Rain = 0
KCL1 100608Z 13006KT 17/09 A3025 RMK A01 T01730091  RH  058%=      5-min Rain = 0
KCL1 100609Z 13006KT 17/09 A3025 RMK A01 T01730091  RH  059%=      5-min Rain = 0
KCL1 100610Z 13006KT 17/09 A3025 RMK A01 T01720091  RH  059%=      5-min Rain = 0
KCL1 100611Z 13006KT 17/09 A3025 RMK A01 T01720091  RH  059%=      5-min Rain = 0
KCL1 100612Z 13006KT 17/09 A3025 RMK A01 T01720091  RH  059%=      5-min Rain = 0
KCL1 100613Z 13006KT 17/09 A3025 RMK A01 T01710091  RH  059%=      5-min Rain = 0
KCL1 100614Z 12006KT 17/09 A3025 RMK A01 T01710091  RH  059%=      5-min Rain = 0
KCL1 100615Z 13006KT 17/09 A3025 RMK A01 T01700091  RH  059%=      5-min Rain = 0
KCL1 100616Z 13007KT 17/09 A3025 RMK A01 T01700091  RH  060%=      5-min Rain = 0
KCL1 100617Z 13006KT 17/09 A3025 RMK A01 T01700091  RH  060%=      5-min Rain = 0
KCL1 100618Z 13006KT 17/09 A3025 RMK A01 T01690091  RH  060%=      5-min Rain = 0
KCL1 100619Z 13006KT 17/09 A3025 RMK A01 T01690091  RH  060%=      5-min Rain = 0
KCL1 100620Z 13007KT 17/09 A3025 RMK A01 T01680091  RH  060%=      5-min Rain = 0
KCL1 100621Z 13007KT 17/09 A3025 RMK A01 T01680091  RH  060%=      5-min Rain = 0
KCL1 100622Z 13007KT 17/09 A3025 RMK A01 T01680091  RH  061%=      5-min Rain = 0
KCL1 100623Z 13006KT 17/09 A3025 RMK A01 T01670091  RH  061%=      5-min Rain = 0
KCL1 100624Z 13007KT 17/09 A3025 RMK A01 T01670091  RH  061%=      5-min Rain = 0
KCL1 100625Z 13007KT 17/09 A3025 RMK A01 T01670091  RH  061%=      5-min Rain = 0
KCL1 100626Z 13007KT 17/09 A3025 RMK A01 T01670091  RH  061%=      5-min Rain = 0
KCL1 100627Z 13007KT 17/09 A3025 RMK A01 T01660091  RH  061%=      5-min Rain = 0
KCL1 100628Z 13007KT 17/09 A3025 RMK A01 T01660091  RH  061%=      5-min Rain = 0
KCL1 100629Z 13007KT 17/09 A3025 RMK A01 T01660091  RH  061%=      5-min Rain = 0
KCL1 100630Z 14007KT 17/09 A3025 RMK A01 T01660091  RH  061%=      5-min Rain = 0
KCL1 100631Z 14007KT 17/09 A3025 RMK A01 T01660091  RH  061%=      5-min Rain = 0
KCL1 100632Z 14007KT 17/09 A3025 RMK A01 T01660091  RH  061%=      5-min Rain = 0
KCL1 100633Z 14007KT 17/09 A3025 RMK A01 T01660091  RH  061%=      5-min Rain = 0
KCL1 100634Z 14006KT 17/09 A3025 RMK A01 T01660091  RH  061%=      5-min Rain = 0
KCL1 100635Z 13007KT 17/09 A3025 RMK A01 T01660092  RH  061%=      5-min Rain = 0
KCL1 100636Z 14006KT 17/09 A3025 RMK A01 T01660092  RH  062%=      5-min Rain = 0
KCL1 100637Z 14006KT 17/09 A3025 RMK A01 T01660092  RH  062%=      5-min Rain = 0
KCL1 100638Z 14006KT 17/09 A3025 RMK A01 T01650092  RH  062%=      5-min Rain = 0
KCL1 100639Z 14006KT 17/09 A3025 RMK A01 T01650091  RH  062%=      5-min Rain = 0
KCL1 100640Z 14006KT 17/09 A3025 RMK A01 T01650092  RH  062%=      5-min Rain = 0
KCL1 100641Z 13006KT 16/09 A3025 RMK A01 T01640091  RH  062%=      5-min Rain = 0
KCL1 100642Z 13006KT 16/09 A3025 RMK A01 T01640091  RH  062%=      5-min Rain = 0
KCL1 100643Z 13006KT 16/09 A3025 RMK A01 T01640091  RH  062%=      5-min Rain = 0
KCL1 100644Z 13006KT 16/09 A3025 RMK A01 T01640092  RH  062%=      5-min Rain = 0
KCL1 100645Z 14006KT 16/09 A3025 RMK A01 T01630092  RH  063%=      5-min Rain = 0
KCL1 100646Z 14005KT 16/09 A3025 RMK A01 T01630092  RH  063%=      5-min Rain = 0
KCL1 100647Z 14005KT 16/09 A3025 RMK A01 T01620092  RH  063%=      5-min Rain = 0
KCL1 100648Z 14005KT 16/09 A3025 RMK A01 T01620092  RH  063%=      5-min Rain = 0
KCL1 100649Z 14005KT 16/09 A3025 RMK A01 T01610091  RH  063%=      5-min Rain = 0
KCL1 100650Z 14005KT 16/09 A3025 RMK A01 T01600092  RH  064%=      5-min Rain = 0
KCL1 100651Z 14005KT 16/09 A3025 RMK A01 T01600092  RH  064%=      5-min Rain = 0
KCL1 100652Z 15005KT 16/09 A3025 RMK A01 T01590091  RH  064%=      5-min Rain = 0
KCL1 100653Z 15004KT 16/09 A3025 RMK A01 T01590092  RH  064%=      5-min Rain = 0
KCL1 100654Z 15005KT 16/09 A3025 RMK A01 T01590091  RH  064%=      5-min Rain = 0
KCL1 100655Z 15005KT 16/09 A3025 RMK A01 T01580091  RH  064%=      5-min Rain = 0
KCL1 100656Z 15006KT 16/09 A3025 RMK A01 T01590091  RH  064%=      5-min Rain = 0
KCL1 100657Z 15005KT 16/09 A3025 RMK A01 T01590091  RH  064%=      5-min Rain = 0
KCL1 100658Z 15006KT 16/09 A3025 RMK A01 T01580091  RH  064%=      5-min Rain = 0
KCL1 100659Z 15007KT 16/09 A3025 RMK A01 T01590091  RH  064%=      5-min Rain = 0
KCL1 100700Z 15006KT 16/09 A3025 RMK A01 T01590092  RH  064%=      5-min Rain = 0
KCL1 100701Z 15006KT 16/09 A3025 RMK A01 T01590092  RH  064%=      5-min Rain = 0
KCL1 100702Z 15006KT 16/09 A3025 RMK A01 T01590091  RH  064%=      5-min Rain = 0
KCL1 100703Z 15006KT 16/09 A3025 RMK A01 T01590091  RH  064%=      5-min Rain = 0
KCL1 100704Z 15006KT 16/09 A3025 RMK A01 T01600091  RH  064%=      5-min Rain = 0
KCL1 100705Z 15006KT 16/09 A3025 RMK A01 T01600092  RH  064%=      5-min Rain = 0
KCL1 100706Z 15006KT 16/09 A3025 RMK A01 T01600092  RH  064%=      5-min Rain = 0
KCL1 100707Z 15006KT 16/09 A3025 RMK A01 T01600092  RH  064%=      5-min Rain = 0
KCL1 100708Z 15007KT 16/09 A3025 RMK A01 T01610092  RH  064%=      5-min Rain = 0
KCL1 100709Z 15007KT 16/09 A3025 RMK A01 T01600092  RH  064%=      5-min Rain = 0
KCL1 100710Z 15006KT 16/09 A3025 RMK A01 T01610092  RH  064%=      5-min Rain = 0
KCL1 100711Z 15006KT 16/09 A3025 RMK A01 T01610092  RH  064%=      5-min Rain = 0
KCL1 100712Z 15006KT 16/09 A3025 RMK A01 T01600092  RH  064%=      5-min Rain = 0
KCL1 100713Z 14006KT 16/09 A3025 RMK A01 T01600092  RH  064%=      5-min Rain = 0
KCL1 100714Z 15006KT 16/09 A3025 RMK A01 T01600092  RH  064%=      5-min Rain = 0
KCL1 100715Z 15005KT 16/09 A3025 RMK A01 T01590092  RH  064%=      5-min Rain = 0
KCL1 100716Z 14005KT 16/09 A3025 RMK A01 T01590092  RH  064%=      5-min Rain = 0
KCL1 100717Z 15005KT 16/09 A3025 RMK A01 T01590092  RH  065%=      5-min Rain = 0
KCL1 100718Z 14005KT 16/09 A3025 RMK A01 T01580092  RH  065%=      5-min Rain = 0
KCL1 100719Z 14005KT 16/09 A3025 RMK A01 T01570092  RH  065%=      5-min Rain = 0
KCL1 100720Z 14006KT 16/09 A3025 RMK A01 T01570092  RH  065%=      5-min Rain = 0
KCL1 100721Z 14005KT 16/09 A3025 RMK A01 T01560092  RH  065%=      5-min Rain = 0
KCL1 100722Z 14005KT 16/09 A3025 RMK A01 T01550092  RH  066%=      5-min Rain = 0
KCL1 100723Z 14005KT 16/09 A3025 RMK A01 T01550092  RH  066%=      5-min Rain = 0
KCL1 100724Z 14005KT 15/09 A3025 RMK A01 T01540092  RH  066%=      5-min Rain = 0
KCL1 100725Z 14005KT 15/09 A3025 RMK A01 T01530092  RH  067%=      5-min Rain = 0
KCL1 100726Z 13005KT 15/09 A3025 RMK A01 T01530092  RH  067%=      5-min Rain = 0
KCL1 100727Z 13005KT 15/09 A3025 RMK A01 T01520092  RH  067%=      5-min Rain = 0
KCL1 100728Z 13005KT 15/09 A3025 RMK A01 T01520092  RH  067%=      5-min Rain = 0
KCL1 100729Z 13005KT 15/09 A3025 RMK A01 T01510091  RH  068%=      5-min Rain = 0
KCL1 100730Z 13006KT 15/09 A3025 RMK A01 T01500091  RH  068%=      5-min Rain = 0
KCL1 100731Z 13005KT 15/09 A3025 RMK A01 T01490091  RH  068%=      5-min Rain = 0
KCL1 100732Z 14005KT 15/09 A3025 RMK A01 T01490091  RH  068%=      5-min Rain = 0
KCL1 100733Z 14005KT 15/09 A3025 RMK A01 T01490091  RH  069%=      5-min Rain = 0
KCL1 100734Z 13005KT 15/09 A3025 RMK A01 T01480091  RH  069%=      5-min Rain = 0
KCL1 100735Z 13005KT 15/09 A3025 RMK A01 T01480091  RH  069%=      5-min Rain = 0
KCL1 100736Z 13005KT 15/09 A3025 RMK A01 T01480092  RH  069%=      5-min Rain = 0
KCL1 100737Z 14004KT 15/09 A3025 RMK A01 T01470091  RH  069%=      5-min Rain = 0
KCL1 100738Z 14004KT 15/09 A3025 RMK A01 T01470091  RH  069%=      5-min Rain = 0
KCL1 100739Z 14005KT 15/09 A3025 RMK A01 T01460091  RH  070%=      5-min Rain = 0
KCL1 100740Z 14004KT 15/09 A3025 RMK A01 T01460092  RH  070%=      5-min Rain = 0
KCL1 100741Z 15004KT 15/09 A3025 RMK A01 T01460092  RH  070%=      5-min Rain = 0
KCL1 100742Z 15004KT 15/09 A3025 RMK A01 T01460092  RH  070%=      5-min Rain = 0
KCL1 100743Z 15005KT 15/09 A3025 RMK A01 T01460091  RH  070%=      5-min Rain = 0
KCL1 100744Z 15006KT 15/09 A3025 RMK A01 T01460091  RH  070%=      5-min Rain = 0
KCL1 100745Z 15006KT 15/09 A3025 RMK A01 T01460092  RH  070%=      5-min Rain = 0
KCL1 100746Z 15007KT 15/09 A3025 RMK A01 T01480092  RH  069%=      5-min Rain = 0
KCL1 100747Z 15007KT 15/09 A3025 RMK A01 T01480092  RH  069%=      5-min Rain = 0
KCL1 100748Z 16006KT 15/09 A3025 RMK A01 T01490092  RH  069%=      5-min Rain = 0
KCL1 100749Z 15007KT 15/09 A3025 RMK A01 T01500092  RH  068%=      5-min Rain = 0
KCL1 100750Z 15007KT 15/09 A3025 RMK A01 T01510092  RH  068%=      5-min Rain = 0
KCL1 100751Z 15006KT 15/09 A3025 RMK A01 T01530092  RH  067%=      5-min Rain = 0
KCL1 100752Z 15006KT 15/09 A3025 RMK A01 T01530092  RH  067%=      5-min Rain = 0
KCL1 100753Z 15006KT 15/09 A3025 RMK A01 T01540092  RH  067%=      5-min Rain = 0
KCL1 100754Z 15007KT 15/09 A3025 RMK A01 T01540092  RH  067%=      5-min Rain = 0
KCL1 100755Z 15006KT 15/09 A3025 RMK A01 T01540092  RH  067%=      5-min Rain = 0
KCL1 100756Z 15006KT 15/09 A3025 RMK A01 T01540092  RH  066%=      5-min Rain = 0
KCL1 100757Z 15007KT 16/09 A3025 RMK A01 T01550092  RH  066%=      5-min Rain = 0
KCL1 100758Z 15007KT 16/09 A3025 RMK A01 T01550092  RH  066%=      5-min Rain = 0
KCL1 100759Z 15007KT 16/09 A3025 RMK A01 T01560092  RH  066%=      5-min Rain = 0
KCL1 100800Z 16007KT 16/09 A3025 RMK A01 T01560092  RH  066%=      5-min Rain = 0
KCL1 100801Z 16006KT 16/09 A3025 RMK A01 T01560092  RH  066%=      5-min Rain = 0
KCL1 100802Z 16007KT 16/09 A3025 RMK A01 T01570093  RH  066%=      5-min Rain = 0
KCL1 100803Z 16007KT 16/09 A3025 RMK A01 T01570093  RH  066%=      5-min Rain = 0
KCL1 100804Z 16007KT 16/09 A3025 RMK A01 T01570093  RH  066%=      5-min Rain = 0
KCL1 100805Z 16007KT 16/09 A3025 RMK A01 T01570093  RH  065%=      5-min Rain = 0
KCL1 100806Z 16007KT 16/09 A3025 RMK A01 T01580093  RH  065%=      5-min Rain = 0
KCL1 100807Z 16007KT 16/09 A3025 RMK A01 T01600093  RH  065%=      5-min Rain = 0
KCL1 100808Z 15008KT 16/09 A3025 RMK A01 T01600093  RH  064%=      5-min Rain = 0
KCL1 100809Z 15009KT 16/09 A3024 RMK A01 T01600093  RH  064%=      5-min Rain = 0
KCL1 100810Z 16009KT 16/09 A3024 RMK A01 T01620093  RH  064%=      5-min Rain = 0
KCL1 100811Z 16006KT 16/09 A3024 RMK A01 T01630093  RH  063%=      5-min Rain = 0
KCL1 100812Z 15006KT 16/09 A3024 RMK A01 T01640093  RH  063%=      5-min Rain = 0
KCL1 100813Z 15007KT 16/09 A3024 RMK A01 T01630093  RH  063%=      5-min Rain = 0
KCL1 100814Z 15007KT 16/09 A3024 RMK A01 T01630093  RH  063%=      5-min Rain = 0
KCL1 100815Z 15006KT 16/09 A3024 RMK A01 T01630093  RH  063%=      5-min Rain = 0
KCL1 100816Z 15006KT 16/09 A3024 RMK A01 T01620093  RH  064%=      5-min Rain = 0
KCL1 100817Z 15007KT 16/09 A3024 RMK A01 T01620093  RH  064%=      5-min Rain = 0
KCL1 100818Z 15007KT 16/09 A3024 RMK A01 T01610093  RH  064%=      5-min Rain = 0
KCL1 100819Z 15006KT 16/09 A3024 RMK A01 T01600093  RH  064%=      5-min Rain = 0
KCL1 100820Z 15007KT 16/09 A3024 RMK A01 T01600093  RH  064%=      5-min Rain = 0
KCL1 100821Z 15007KT 16/09 A3024 RMK A01 T01600093  RH  064%=      5-min Rain = 0
KCL1 100822Z 15007KT 16/09 A3024 RMK A01 T01600093  RH  064%=      5-min Rain = 0
KCL1 100823Z 16007KT 16/09 A3024 RMK A01 T01600093  RH  064%=      5-min Rain = 0
KCL1 100824Z 15007KT 16/09 A3024 RMK A01 T01600093  RH  065%=      5-min Rain = 0
KCL1 100825Z 15006KT 16/09 A3024 RMK A01 T01590093  RH  065%=      5-min Rain = 0
KCL1 100826Z 16006KT 16/09 A3025 RMK A01 T01590093  RH  065%=      5-min Rain = 0
KCL1 100827Z 15006KT 16/09 A3025 RMK A01 T01590093  RH  065%=      5-min Rain = 0
KCL1 100828Z 16007KT 16/09 A3025 RMK A01 T01580093  RH  065%=      5-min Rain = 0
KCL1 100829Z 16007KT 16/09 A3025 RMK A01 T01580093  RH  065%=      5-min Rain = 0
KCL1 100830Z 16006KT 16/09 A3024 RMK A01 T01590093  RH  065%=      5-min Rain = 0
KCL1 100831Z 16006KT 16/09 A3024 RMK A01 T01590093  RH  065%=      5-min Rain = 0
KCL1 100832Z 16007KT 16/09 A3024 RMK A01 T01580093  RH  065%=      5-min Rain = 0
KCL1 100833Z 16007KT 16/09 A3024 RMK A01 T01580093  RH  065%=      5-min Rain = 0
KCL1 100834Z 15007KT 16/09 A3024 RMK A01 T01580093  RH  065%=      5-min Rain = 0
KCL1 100835Z 15006KT 16/09 A3024 RMK A01 T01580093  RH  065%=      5-min Rain = 0
KCL1 100836Z 15007KT 16/09 A3024 RMK A01 T01570093  RH  066%=      5-min Rain = 0
KCL1 100837Z 15007KT 16/09 A3024 RMK A01 T01560093  RH  066%=      5-min Rain = 0
KCL1 100838Z 15007KT 16/09 A3024 RMK A01 T01560093  RH  066%=      5-min Rain = 0
KCL1 100839Z 15006KT 16/09 A3024 RMK A01 T01550093  RH  066%=      5-min Rain = 0
KCL1 100840Z 15006KT 16/09 A3024 RMK A01 T01550093  RH  066%=      5-min Rain = 0
KCL1 100841Z 15007KT 15/09 A3024 RMK A01 T01540093  RH  067%=      5-min Rain = 0
KCL1 100842Z 15007KT 16/09 A3024 RMK A01 T01550093  RH  067%=      5-min Rain = 0
KCL1 100843Z 16008KT 15/09 A3024 RMK A01 T01540093  RH  067%=      5-min Rain = 0
KCL1 100844Z 15008KT 15/09 A3024 RMK A01 T01540093  RH  067%=      5-min Rain = 0
KCL1 100845Z 15008KT 16/09 A3024 RMK A01 T01550092  RH  066%=      5-min Rain = 0
KCL1 100846Z 15008KT 16/09 A3024 RMK A01 T01550093  RH  066%=      5-min Rain = 0
KCL1 100847Z 15007KT 16/09 A3024 RMK A01 T01550093  RH  066%=      5-min Rain = 0
KCL1 100848Z 15008KT 16/09 A3024 RMK A01 T01550093  RH  066%=      5-min Rain = 0
KCL1 100849Z 15008KT 15/09 A3024 RMK A01 T01540093  RH  067%=      5-min Rain = 0
KCL1 100850Z 16008KT 16/09 A3024 RMK A01 T01550093  RH  067%=      5-min Rain = 0
KCL1 100851Z 16008KT 15/09 A3024 RMK A01 T01540093  RH  067%=      5-min Rain = 0
KCL1 100852Z 15008KT 15/09 A3024 RMK A01 T01540093  RH  067%=      5-min Rain = 0
KCL1 100853Z 16006KT 15/09 A3024 RMK A01 T01540093  RH  067%=      5-min Rain = 0
KCL1 100854Z 16008KT 15/09 A3024 RMK A01 T01540093  RH  067%=      5-min Rain = 0
KCL1 100855Z 16008KT 15/09 A3024 RMK A01 T01540093  RH  067%=      5-min Rain = 0
KCL1 100856Z 16009KT 16/09 A3024 RMK A01 T01550093  RH  067%=      5-min Rain = 0
KCL1 100857Z 16007KT 16/09 A3024 RMK A01 T01560093  RH  066%=      5-min Rain = 0
KCL1 100858Z 15007KT 16/09 A3024 RMK A01 T01560093  RH  066%=      5-min Rain = 0
KCL1 100859Z 15008KT 16/09 A3025 RMK A01 T01570093  RH  066%=      5-min Rain = 0
KCL1 100900Z 15009KT 16/09 A3025 RMK A01 T01570094  RH  066%=      5-min Rain = 0
KCL1 100901Z 16008KT 16/09 A3025 RMK A01 T01570093  RH  066%=      5-min Rain = 0
KCL1 100902Z 15008KT 16/09 A3025 RMK A01 T01580093  RH  065%=      5-min Rain = 0
KCL1 100903Z 16006KT 16/09 A3025 RMK A01 T01580093  RH  065%=      5-min Rain = 0
KCL1 100904Z 15008KT 16/09 A3024 RMK A01 T01590094  RH  065%=      5-min Rain = 0
KCL1 100905Z 16007KT 16/09 A3025 RMK A01 T01580093  RH  065%=      5-min Rain = 0
KCL1 100906Z 15007KT 16/09 A3025 RMK A01 T01580094  RH  065%=      5-min Rain = 0
KCL1 100907Z 15008KT 16/09 A3024 RMK A01 T01580094  RH  066%=      5-min Rain = 0
KCL1 100908Z 16007KT 16/09 A3024 RMK A01 T01570094  RH  066%=      5-min Rain = 0
KCL1 100909Z 15008KT 16/09 A3024 RMK A01 T01560093  RH  066%=      5-min Rain = 0
KCL1 100910Z 15009KT 16/09 A3024 RMK A01 T01560094  RH  066%=      5-min Rain = 0
KCL1 100911Z 15009KT 16/09 A3024 RMK A01 T01560093  RH  066%=      5-min Rain = 0
KCL1 100912Z 15008KT 16/09 A3024 RMK A01 T01570093  RH  066%=      5-min Rain = 0
KCL1 100913Z 15007KT 16/09 A3024 RMK A01 T01570094  RH  066%=      5-min Rain = 0
KCL1 100914Z 15008KT 16/09 A3024 RMK A01 T01560094  RH  066%=      5-min Rain = 0
KCL1 100915Z 15007KT 16/09 A3024 RMK A01 T01560094  RH  066%=      5-min Rain = 0
KCL1 100916Z 15007KT 16/09 A3024 RMK A01 T01550094  RH  067%=      5-min Rain = 0
KCL1 100917Z 15006KT 16/09 A3024 RMK A01 T01550094  RH  067%=      5-min Rain = 0
KCL1 100918Z 15006KT 15/09 A3024 RMK A01 T01540093  RH  067%=      5-min Rain = 0
KCL1 100919Z 15007KT 15/09 A3024 RMK A01 T01530094  RH  068%=      5-min Rain = 0
KCL1 100920Z 15007KT 15/09 A3024 RMK A01 T01520094  RH  068%=      5-min Rain = 0
KCL1 100921Z 15007KT 15/09 A3024 RMK A01 T01520093  RH  068%=      5-min Rain = 0
KCL1 100922Z 15006KT 15/09 A3024 RMK A01 T01520094  RH  068%=      5-min Rain = 0
KCL1 100923Z 15007KT 15/09 A3024 RMK A01 T01520094  RH  068%=      5-min Rain = 0
KCL1 100924Z 16007KT 15/09 A3024 RMK A01 T01520094  RH  068%=      5-min Rain = 0
KCL1 100925Z 15008KT 15/09 A3024 RMK A01 T01510094  RH  068%=      5-min Rain = 0
KCL1 100926Z 15007KT 15/09 A3024 RMK A01 T01510093  RH  068%=      5-min Rain = 0
KCL1 100927Z 15007KT 15/09 A3024 RMK A01 T01510094  RH  069%=      5-min Rain = 0
KCL1 100928Z 15007KT 15/09 A3024 RMK A01 T01510094  RH  069%=      5-min Rain = 0
KCL1 100929Z 16006KT 15/09 A3024 RMK A01 T01510094  RH  069%=      5-min Rain = 0
KCL1 100930Z 16007KT 15/09 A3024 RMK A01 T01510094  RH  069%=      5-min Rain = 0
KCL1 100931Z 15007KT 15/09 A3024 RMK A01 T01510093  RH  069%=      5-min Rain = 0
KCL1 100932Z 16006KT 15/09 A3024 RMK A01 T01510094  RH  069%=      5-min Rain = 0
KCL1 100933Z 15006KT 15/09 A3024 RMK A01 T01510094  RH  069%=      5-min Rain = 0
KCL1 100934Z 15006KT 15/09 A3024 RMK A01 T01510094  RH  069%=      5-min Rain = 0
KCL1 100935Z 15007KT 15/09 A3024 RMK A01 T01510094  RH  069%=      5-min Rain = 0
KCL1 100936Z 15007KT 15/09 A3024 RMK A01 T01510094  RH  069%=      5-min Rain = 0
KCL1 100937Z 15007KT 15/09 A3024 RMK A01 T01510094  RH  069%=      5-min Rain = 0
KCL1 100938Z 15006KT 15/09 A3024 RMK A01 T01500094  RH  069%=      5-min Rain = 0
KCL1 100939Z 15007KT 15/09 A3024 RMK A01 T01500094  RH  069%=      5-min Rain = 0
KCL1 100940Z 15007KT 15/09 A3024 RMK A01 T01500094  RH  069%=      5-min Rain = 0
KCL1 100941Z 15008KT 15/09 A3024 RMK A01 T01500094  RH  069%=      5-min Rain = 0
KCL1 100942Z 15008KT 15/09 A3024 RMK A01 T01500094  RH  069%=      5-min Rain = 0
KCL1 100943Z 16007KT 15/09 A3024 RMK A01 T01510094  RH  069%=      5-min Rain = 0
KCL1 100944Z 16007KT 15/09 A3024 RMK A01 T01510094  RH  069%=      5-min Rain = 0
KCL1 100945Z 16007KT 15/09 A3024 RMK A01 T01510094  RH  069%=      5-min Rain = 0
KCL1 100946Z 16007KT 15/09 A3024 RMK A01 T01510094  RH  069%=      5-min Rain = 0
KCL1 100947Z 16007KT 15/09 A3024 RMK A01 T01510094  RH  069%=      5-min Rain = 0
KCL1 100948Z 17007KT 15/09 A3024 RMK A01 T01510094  RH  069%=      5-min Rain = 0
KCL1 100949Z 16007KT 15/09 A3024 RMK A01 T01510094  RH  069%=      5-min Rain = 0
KCL1 100950Z 16007KT 15/09 A3024 RMK A01 T01510094  RH  069%=      5-min Rain = 0
KCL1 100951Z 16007KT 15/09 A3024 RMK A01 T01510094  RH  069%=      5-min Rain = 0
KCL1 100952Z 16007KT 15/09 A3024 RMK A01 T01510094  RH  069%=      5-min Rain = 0
KCL1 100953Z 16006KT 15/09 A3024 RMK A01 T01510094  RH  069%=      5-min Rain = 0
KCL1 100954Z 16006KT 15/09 A3024 RMK A01 T01520094  RH  068%=      5-min Rain = 0
KCL1 100955Z 16007KT 15/09 A3024 RMK A01 T01520094  RH  068%=      5-min Rain = 0
KCL1 100956Z 16009KT 15/09 A3024 RMK A01 T01530094  RH  068%=      5-min Rain = 0
KCL1 100957Z 15008KT 15/09 A3024 RMK A01 T01530094  RH  068%=      5-min Rain = 0
KCL1 100958Z 15008KT 15/10 A3024 RMK A01 T01530095  RH  068%=      5-min Rain = 0
KCL1 100959Z 16009KT 15/09 A3024 RMK A01 T01530094  RH  068%=      5-min Rain = 0
KCL1 101000Z 15008KT 15/09 A3024 RMK A01 T01530094  RH  068%=      5-min Rain = 0
KCL1 101001Z 16008KT 15/10 A3024 RMK A01 T01530095  RH  068%=      5-min Rain = 0
KCL1 101002Z 16008KT 15/10 A3024 RMK A01 T01530095  RH  068%=      5-min Rain = 0
KCL1 101003Z 15008KT 15/10 A3024 RMK A01 T01530095  RH  068%=      5-min Rain = 0
KCL1 101004Z 16008KT 15/10 A3024 RMK A01 T01530095  RH  068%=      5-min Rain = 0
KCL1 101005Z 16007KT 15/10 A3024 RMK A01 T01520095  RH  068%=      5-min Rain = 0
KCL1 101006Z 16008KT 15/10 A3024 RMK A01 T01520095  RH  069%=      5-min Rain = 0
KCL1 101007Z 16008KT 15/10 A3024 RMK A01 T01520095  RH  069%=      5-min Rain = 0
KCL1 101008Z 16008KT 15/10 A3024 RMK A01 T01520095  RH  069%=      5-min Rain = 0
KCL1 101009Z 16008KT 15/10 A3024 RMK A01 T01520095  RH  069%=      5-min Rain = 0
KCL1 101010Z 16008KT 15/10 A3024 RMK A01 T01520095  RH  069%=      5-min Rain = 0
KCL1 101011Z 17007KT 15/10 A3025 RMK A01 T01520095  RH  069%=      5-min Rain = 0
KCL1 101012Z 16008KT 15/10 A3025 RMK A01 T01520095  RH  069%=      5-min Rain = 0
KCL1 101013Z 16008KT 15/10 A3025 RMK A01 T01520095  RH  069%=      5-min Rain = 0
KCL1 101014Z 17007KT 15/10 A3025 RMK A01 T01520095  RH  069%=      5-min Rain = 0
KCL1 101015Z 16006KT 15/10 A3025 RMK A01 T01520095  RH  069%=      5-min Rain = 0
KCL1 101016Z 17006KT 15/10 A3025 RMK A01 T01510095  RH  069%=      5-min Rain = 0
KCL1 101017Z 16007KT 15/10 A3025 RMK A01 T01500095  RH  069%=      5-min Rain = 0
KCL1 101018Z 17006KT 15/09 A3025 RMK A01 T01500094  RH  070%=      5-min Rain = 0
KCL1 101019Z 17006KT 15/10 A3025 RMK A01 T01490095  RH  070%=      5-min Rain = 0
KCL1 101020Z 16005KT 15/09 A3025 RMK A01 T01480094  RH  070%=      5-min Rain = 0
KCL1 101021Z 17005KT 15/09 A3025 RMK A01 T01470094  RH  070%=      5-min Rain = 0
KCL1 101022Z 16005KT 15/09 A3025 RMK A01 T01460094  RH  071%=      5-min Rain = 0
KCL1 101023Z 17005KT 15/09 A3025 RMK A01 T01460094  RH  071%=      5-min Rain = 0
KCL1 101024Z 17005KT 15/09 A3025 RMK A01 T01450094  RH  071%=      5-min Rain = 0
KCL1 101025Z 17005KT 14/09 A3025 RMK A01 T01440093  RH  072%=      5-min Rain = 0
KCL1 101026Z 17005KT 14/09 A3025 RMK A01 T01430093  RH  072%=      5-min Rain = 0
KCL1 101027Z 17005KT 14/09 A3025 RMK A01 T01420093  RH  072%=      5-min Rain = 0
KCL1 101028Z 17005KT 14/09 A3025 RMK A01 T01410093  RH  073%=      5-min Rain = 0
KCL1 101029Z 17005KT 14/09 A3025 RMK A01 T01400093  RH  073%=      5-min Rain = 0
KCL1 101030Z 17005KT 14/09 A3025 RMK A01 T01380092  RH  074%=      5-min Rain = 0
KCL1 101031Z 17005KT 14/09 A3025 RMK A01 T01380092  RH  074%=      5-min Rain = 0
KCL1 101032Z 17005KT 14/09 A3025 RMK A01 T01370092  RH  075%=      5-min Rain = 0
KCL1 101033Z 16005KT 14/09 A3025 RMK A01 T01360092  RH  075%=      5-min Rain = 0
KCL1 101034Z 17005KT 14/09 A3025 RMK A01 T01350092  RH  075%=      5-min Rain = 0
KCL1 101035Z 17005KT 14/09 A3025 RMK A01 T01350092  RH  075%=      5-min Rain = 0
KCL1 101036Z 17005KT 13/09 A3025 RMK A01 T01340092  RH  076%=      5-min Rain = 0
KCL1 101037Z 17005KT 13/09 A3025 RMK A01 T01330092  RH  076%=      5-min Rain = 0
KCL1 101038Z 17005KT 13/09 A3025 RMK A01 T01330092  RH  076%=      5-min Rain = 0
KCL1 101039Z 17005KT 13/09 A3025 RMK A01 T01330092  RH  076%=      5-min Rain = 0
KCL1 101040Z 17005KT 13/09 A3026 RMK A01 T01320092  RH  077%=      5-min Rain = 0
KCL1 101041Z 17005KT 13/09 A3026 RMK A01 T01320092  RH  077%=      5-min Rain = 0
KCL1 101042Z 17005KT 13/09 A3026 RMK A01 T01320092  RH  077%=      5-min Rain = 0
KCL1 101043Z 17004KT 13/09 A3026 RMK A01 T01320092  RH  077%=      5-min Rain = 0
KCL1 101044Z 17004KT 13/09 A3026 RMK A01 T01320092  RH  077%=      5-min Rain = 0
KCL1 101045Z 16004KT 13/09 A3026 RMK A01 T01320092  RH  077%=      5-min Rain = 0
KCL1 101046Z 15005KT 13/09 A3026 RMK A01 T01320092  RH  077%=      5-min Rain = 0
KCL1 101047Z 15005KT 13/09 A3026 RMK A01 T01320093  RH  077%=      5-min Rain = 0
KCL1 101048Z 15005KT 13/09 A3026 RMK A01 T01320092  RH  077%=      5-min Rain = 0
KCL1 101049Z 15006KT 13/09 A3026 RMK A01 T01330092  RH  076%=      5-min Rain = 0
KCL1 101050Z 15006KT 13/09 A3026 RMK A01 T01330092  RH  076%=      5-min Rain = 0
KCL1 101051Z 15006KT 13/09 A3026 RMK A01 T01330093  RH  076%=      5-min Rain = 0
KCL1 101052Z 15006KT 13/09 A3026 RMK A01 T01340093  RH  076%=      5-min Rain = 0
KCL1 101053Z 15006KT 13/09 A3026 RMK A01 T01340094  RH  076%=      5-min Rain = 0
KCL1 101054Z 15006KT 14/09 A3026 RMK A01 T01350094  RH  076%=      5-min Rain = 0
KCL1 101055Z 14007KT 14/09 A3026 RMK A01 T01360094  RH  076%=      5-min Rain = 0
KCL1 101056Z 14007KT 14/10 A3026 RMK A01 T01360095  RH  076%=      5-min Rain = 0
KCL1 101057Z 15007KT 14/10 A3026 RMK A01 T01360095  RH  076%=      5-min Rain = 0
KCL1 101058Z 14007KT 14/10 A3026 RMK A01 T01370095  RH  076%=      5-min Rain = 0
KCL1 101059Z 14007KT 14/10 A3026 RMK A01 T01380095  RH  075%=      5-min Rain = 0
KCL1 101100Z 14007KT 14/10 A3026 RMK A01 T01380096  RH  075%=      5-min Rain = 0
KCL1 101101Z 14008KT 14/10 A3026 RMK A01 T01380096  RH  075%=      5-min Rain = 0
KCL1 101102Z 14008KT 14/10 A3026 RMK A01 T01380096  RH  076%=      5-min Rain = 0
KCL1 101103Z 15008KT 14/10 A3026 RMK A01 T01380096  RH  076%=      5-min Rain = 0
KCL1 101104Z 15008KT 14/10 A3026 RMK A01 T01380096  RH  076%=      5-min Rain = 0
KCL1 101105Z 15008KT 14/10 A3026 RMK A01 T01390096  RH  075%=      5-min Rain = 0
KCL1 101106Z 15007KT 14/10 A3026 RMK A01 T01400096  RH  075%=      5-min Rain = 0
KCL1 101107Z 14008KT 14/10 A3026 RMK A01 T01400096  RH  075%=      5-min Rain = 0
KCL1 101108Z 15006KT 14/10 A3026 RMK A01 T01410097  RH  075%=      5-min Rain = 0
KCL1 101109Z 15005KT 14/10 A3026 RMK A01 T01410096  RH  075%=      5-min Rain = 0
KCL1 101110Z 16005KT 14/10 A3026 RMK A01 T01410097  RH  075%=      5-min Rain = 0
KCL1 101111Z 16005KT 14/10 A3026 RMK A01 T01400096  RH  075%=      5-min Rain = 0
KCL1 101112Z 16005KT 14/10 A3026 RMK A01 T01400096  RH  075%=      5-min Rain = 0
KCL1 101113Z 16005KT 14/10 A3026 RMK A01 T01390096  RH  075%=      5-min Rain = 0
KCL1 101114Z 16005KT 14/10 A3026 RMK A01 T01390096  RH  076%=      5-min Rain = 0
KCL1 101115Z 16005KT 14/10 A3026 RMK A01 T01380096  RH  076%=      5-min Rain = 0
KCL1 101116Z 16006KT 14/10 A3026 RMK A01 T01380096  RH  076%=      5-min Rain = 0
KCL1 101117Z 16006KT 14/10 A3026 RMK A01 T01370096  RH  076%=      5-min Rain = 0
KCL1 101118Z 16006KT 14/10 A3026 RMK A01 T01380096  RH  076%=      5-min Rain = 0
KCL1 101119Z 16005KT 14/10 A3026 RMK A01 T01380096  RH  076%=      5-min Rain = 0
KCL1 101120Z 16006KT 14/10 A3026 RMK A01 T01390096  RH  075%=      5-min Rain = 0
KCL1 101121Z 16007KT 14/10 A3026 RMK A01 T01390096  RH  075%=      5-min Rain = 0
KCL1 101122Z 16006KT 14/10 A3026 RMK A01 T01390096  RH  075%=      5-min Rain = 0
KCL1 101123Z 16006KT 14/10 A3026 RMK A01 T01400096  RH  075%=      5-min Rain = 0
KCL1 101124Z 16006KT 14/10 A3026 RMK A01 T01400096  RH  075%=      5-min Rain = 0
KCL1 101125Z 16006KT 14/10 A3026 RMK A01 T01400096  RH  075%=      5-min Rain = 0
KCL1 101126Z 17005KT 14/10 A3026 RMK A01 T01400096  RH  075%=      5-min Rain = 0
KCL1 101127Z 18005KT 14/10 A3026 RMK A01 T01390096  RH  075%=      5-min Rain = 0
KCL1 101128Z 18005KT 14/10 A3026 RMK A01 T01380096  RH  075%=      5-min Rain = 0
KCL1 101129Z 19004KT 14/10 A3026 RMK A01 T01380095  RH  076%=      5-min Rain = 0
KCL1 101130Z 19004KT 14/10 A3026 RMK A01 T01370095  RH  076%=      5-min Rain = 0
KCL1 101131Z 20003KT 14/10 A3026 RMK A01 T01380096  RH  076%=      5-min Rain = 0
KCL1 101132Z 20003KT 14/10 A3026 RMK A01 T01370095  RH  076%=      5-min Rain = 0
KCL1 101133Z 20004KT 14/10 A3026 RMK A01 T01370095  RH  076%=      5-min Rain = 0
KCL1 101134Z 20003KT 14/09 A3026 RMK A01 T01370094  RH  075%=      5-min Rain = 0
KCL1 101135Z 20003KT 14/09 A3026 RMK A01 T01380094  RH  075%=      5-min Rain = 0
KCL1 101136Z 20003KT 14/09 A3026 RMK A01 T01380094  RH  075%=      5-min Rain = 0
KCL1 101137Z 21003KT 14/09 A3026 RMK A01 T01380094  RH  075%=      5-min Rain = 0
KCL1 101138Z 20003KT 14/09 A3026 RMK A01 T01380094  RH  075%=      5-min Rain = 0
KCL1 101139Z 21003KT 14/09 A3026 RMK A01 T01380094  RH  075%=      5-min Rain = 0
KCL1 101140Z 21003KT 14/09 A3026 RMK A01 T01380094  RH  075%=      5-min Rain = 0
KCL1 101141Z 19003KT 14/09 A3027 RMK A01 T01370094  RH  075%=      5-min Rain = 0
KCL1 101142Z 20003KT 14/09 A3027 RMK A01 T01370094  RH  075%=      5-min Rain = 0
KCL1 101143Z 19003KT 14/09 A3027 RMK A01 T01370093  RH  075%=      5-min Rain = 0
KCL1 101144Z 18003KT 14/09 A3027 RMK A01 T01380094  RH  075%=      5-min Rain = 0
KCL1 101145Z 18004KT 14/09 A3027 RMK A01 T01380094  RH  075%=      5-min Rain = 0
KCL1 101146Z 18003KT 14/09 A3027 RMK A01 T01380094  RH  075%=      5-min Rain = 0
KCL1 101147Z 19004KT 14/09 A3027 RMK A01 T01380094  RH  075%=      5-min Rain = 0
KCL1 101148Z 19004KT 14/09 A3027 RMK A01 T01370094  RH  075%=      5-min Rain = 0
KCL1 101149Z 19003KT 14/09 A3027 RMK A01 T01370094  RH  075%=      5-min Rain = 0
KCL1 101150Z 18003KT 14/09 A3027 RMK A01 T01370094  RH  075%=      5-min Rain = 0
KCL1 101151Z 18003KT 14/09 A3027 RMK A01 T01370094  RH  075%=      5-min Rain = 0
KCL1 101152Z 17003KT 14/09 A3027 RMK A01 T01360094  RH  075%=      5-min Rain = 0
KCL1 101153Z 16003KT 14/09 A3027 RMK A01 T01360094  RH  076%=      5-min Rain = 0
KCL1 101154Z 16004KT 14/09 A3027 RMK A01 T01350093  RH  076%=      5-min Rain = 0
KCL1 101155Z 16005KT 14/09 A3028 RMK A01 T01350094  RH  076%=      5-min Rain = 0
KCL1 101156Z 16005KT 13/09 A3028 RMK A01 T01340093  RH  076%=      5-min Rain = 0
KCL1 101157Z 16006KT 13/09 A3028 RMK A01 T01340093  RH  077%=      5-min Rain = 0
KCL1 101158Z 16006KT 13/09 A3028 RMK A01 T01330093  RH  077%=      5-min Rain = 0
KCL1 101159Z 16006KT 13/09 A3028 RMK A01 T01310092  RH  077%=      5-min Rain = 0
KCL1 101200Z 15006KT 13/09 A3028 RMK A01 T01300092  RH  077%=      5-min Rain = 0
KCL1 101201Z 15006KT 13/09 A3028 RMK A01 T01290092  RH  078%=      5-min Rain = 0
KCL1 101202Z 15006KT 13/09 A3028 RMK A01 T01280092  RH  078%=      5-min Rain = 0
KCL1 101203Z 15006KT 13/09 A3028 RMK A01 T01280092  RH  079%=      5-min Rain = 0
KCL1 101204Z 15006KT 13/09 A3028 RMK A01 T01270091  RH  079%=      5-min Rain = 0
KCL1 101205Z 14006KT 13/09 A3028 RMK A01 T01260091  RH  079%=      5-min Rain = 0
KCL1 101206Z 15006KT 13/09 A3028 RMK A01 T01260092  RH  080%=      5-min Rain = 0
KCL1 101207Z 15006KT 13/09 A3028 RMK A01 T01250092  RH  080%=      5-min Rain = 0
KCL1 101208Z 15006KT 13/09 A3028 RMK A01 T01250092  RH  080%=      5-min Rain = 0
KCL1 101209Z 15006KT 12/09 A3027 RMK A01 T01240091  RH  081%=      5-min Rain = 0
KCL1 101210Z 15006KT 12/09 A3028 RMK A01 T01230091  RH  081%=      5-min Rain = 0
KCL1 101211Z 15007KT 12/09 A3028 RMK A01 T01220091  RH  082%=      5-min Rain = 0
KCL1 101212Z 15007KT 12/09 A3028 RMK A01 T01220092  RH  082%=      5-min Rain = 0
KCL1 101213Z 15007KT 12/09 A3028 RMK A01 T01220092  RH  082%=      5-min Rain = 0
KCL1 101214Z 15006KT 12/09 A3028 RMK A01 T01220092  RH  082%=      5-min Rain = 0
KCL1 101215Z 15006KT 12/09 A3028 RMK A01 T01210092  RH  082%=      5-min Rain = 0
KCL1 101216Z 15006KT 12/09 A3028 RMK A01 T01210092  RH  082%=      5-min Rain = 0
KCL1 101217Z 15006KT 12/09 A3028 RMK A01 T01210092  RH  082%=      5-min Rain = 0
KCL1 101218Z 16006KT 12/09 A3028 RMK A01 T01220092  RH  082%=      5-min Rain = 0
KCL1 101219Z 16006KT 12/09 A3028 RMK A01 T01220092  RH  082%=      5-min Rain = 0
KCL1 101220Z 16005KT 12/09 A3028 RMK A01 T01220092  RH  082%=      5-min Rain = 0
KCL1 101221Z 16005KT 12/09 A3028 RMK A01 T01220092  RH  082%=      5-min Rain = 0
KCL1 101222Z 16005KT 12/09 A3028 RMK A01 T01230092  RH  082%=      5-min Rain = 0
KCL1 101223Z 16005KT 12/09 A3028 RMK A01 T01230092  RH  082%=      5-min Rain = 0
KCL1 101224Z 17005KT 12/09 A3028 RMK A01 T01230093  RH  082%=      5-min Rain = 0
KCL1 101225Z 17005KT 12/09 A3028 RMK A01 T01240093  RH  081%=      5-min Rain = 0
KCL1 101226Z 17005KT 12/09 A3028 RMK A01 T01240093  RH  081%=      5-min Rain = 0
KCL1 101227Z 17005KT 12/09 A3028 RMK A01 T01240093  RH  081%=      5-min Rain = 0
KCL1 101228Z 17004KT 13/09 A3028 RMK A01 T01250093  RH  081%=      5-min Rain = 0
KCL1 101229Z 17004KT 13/09 A3028 RMK A01 T01250093  RH  081%=      5-min Rain = 0
KCL1 101230Z 17004KT 13/09 A3028 RMK A01 T01250093  RH  081%=      5-min Rain = 0
KCL1 101231Z 17004KT 13/09 A3028 RMK A01 T01260093  RH  081%=      5-min Rain = 0
KCL1 101232Z 17004KT 13/09 A3028 RMK A01 T01260094  RH  081%=      5-min Rain = 0
KCL1 101233Z 17004KT 13/09 A3028 RMK A01 T01260094  RH  080%=      5-min Rain = 0
KCL1 101234Z 17004KT 13/09 A3028 RMK A01 T01270094  RH  080%=      5-min Rain = 0
KCL1 101235Z 17004KT 13/09 A3028 RMK A01 T01280094  RH  080%=      5-min Rain = 0
KCL1 101236Z 16004KT 13/09 A3028 RMK A01 T01290094  RH  080%=      5-min Rain = 0
KCL1 101237Z 17005KT 13/10 A3028 RMK A01 T01290095  RH  079%=      5-min Rain = 0
KCL1 101238Z 17005KT 13/10 A3028 RMK A01 T01300095  RH  079%=      5-min Rain = 0
KCL1 101239Z 17005KT 13/09 A3028 RMK A01 T01300094  RH  079%=      5-min Rain = 0
KCL1 101240Z 17004KT 13/09 A3028 RMK A01 T01290094  RH  079%=      5-min Rain = 0
KCL1 101241Z 17004KT 13/09 A3028 RMK A01 T01290094  RH  079%=      5-min Rain = 0
KCL1 101242Z 18005KT 13/09 A3028 RMK A01 T01280094  RH  080%=      5-min Rain = 0
KCL1 101243Z 18005KT 13/09 A3028 RMK A01 T01280094  RH  080%=      5-min Rain = 0
KCL1 101244Z 18005KT 13/10 A3028 RMK A01 T01290095  RH  080%=      5-min Rain = 0
KCL1 101245Z 18005KT 13/10 A3028 RMK A01 T01290095  RH  080%=      5-min Rain = 0
KCL1 101246Z 19004KT 13/10 A3028 RMK A01 T01290095  RH  080%=      5-min Rain = 0
KCL1 101247Z 20004KT 13/10 A3028 RMK A01 T01300095  RH  079%=      5-min Rain = 0
KCL1 101248Z 21003KT 13/10 A3028 RMK A01 T01310096  RH  079%=      5-min Rain = 0
KCL1 101249Z 21002KT 13/10 A3028 RMK A01 T01320096  RH  079%=      5-min Rain = 0
KCL1 101250Z 20002KT 13/10 A3028 RMK A01 T01330096  RH  078%=      5-min Rain = 0
KCL1 101251Z 20002KT 13/10 A3028 RMK A01 T01330096  RH  078%=      5-min Rain = 0
KCL1 101252Z 20002KT 13/10 A3028 RMK A01 T01340096  RH  078%=      5-min Rain = 0
KCL1 101253Z 20002KT 13/10 A3028 RMK A01 T01340096  RH  078%=      5-min Rain = 0
KCL1 101254Z 20002KT 13/10 A3028 RMK A01 T01340095  RH  077%=      5-min Rain = 0
KCL1 101255Z 20002KT 14/10 A3028 RMK A01 T01350096  RH  077%=      5-min Rain = 0
KCL1 101256Z 20002KT 14/10 A3028 RMK A01 T01350096  RH  077%=      5-min Rain = 0
KCL1 101257Z 21002KT 14/10 A3029 RMK A01 T01350096  RH  077%=      5-min Rain = 0
KCL1 101258Z 20002KT 14/10 A3029 RMK A01 T01350095  RH  077%=      5-min Rain = 0
KCL1 101259Z 20002KT 14/10 A3029 RMK A01 T01360095  RH  077%=      5-min Rain = 0
KCL1 101300Z 20002KT 14/10 A3029 RMK A01 T01360096  RH  076%=      5-min Rain = 0
KCL1 101301Z 20002KT 14/10 A3029 RMK A01 T01370096  RH  076%=      5-min Rain = 0
KCL1 101302Z 19002KT 14/10 A3029 RMK A01 T01380096  RH  076%=      5-min Rain = 0
KCL1 101303Z 20002KT 14/10 A3029 RMK A01 T01380096  RH  076%=      5-min Rain = 0
KCL1 101304Z 20002KT 14/10 A3029 RMK A01 T01390096  RH  075%=      5-min Rain = 0
KCL1 101305Z 20002KT 14/10 A3029 RMK A01 T01390096  RH  075%=      5-min Rain = 0
KCL1 101306Z 20002KT 14/10 A3029 RMK A01 T01390096  RH  075%=      5-min Rain = 0
KCL1 101307Z 20002KT 14/10 A3029 RMK A01 T01390096  RH  075%=      5-min Rain = 0
KCL1 101308Z 20002KT 14/10 A3029 RMK A01 T01400096  RH  075%=      5-min Rain = 0
KCL1 101309Z 20002KT 14/10 A3029 RMK A01 T01400096  RH  075%=      5-min Rain = 0
KCL1 101310Z 20002KT 14/10 A3029 RMK A01 T01410096  RH  075%=      5-min Rain = 0
KCL1 101311Z 19002KT 14/10 A3029 RMK A01 T01410096  RH  074%=      5-min Rain = 0
KCL1 101312Z 20002KT 14/10 A3029 RMK A01 T01420097  RH  074%=      5-min Rain = 0
KCL1 101313Z 20001KT 14/10 A3029 RMK A01 T01420097  RH  074%=      5-min Rain = 0
KCL1 101314Z 20002KT 14/10 A3029 RMK A01 T01430097  RH  074%=      5-min Rain = 0
KCL1 101315Z 20002KT 14/10 A3029 RMK A01 T01430097  RH  074%=      5-min Rain = 0
KCL1 101316Z 20002KT 14/10 A3029 RMK A01 T01440098  RH  074%=      5-min Rain = 0
KCL1 101317Z 21001KT 14/10 A3029 RMK A01 T01440097  RH  073%=      5-min Rain = 0
KCL1 101318Z 22001KT 15/10 A3029 RMK A01 T01450098  RH  073%=      5-min Rain = 0
KCL1 101319Z 23002KT 15/10 A303 RMK A01 T01450097  RH  073%=      5-min Rain = 0
KCL1 101320Z 23002KT 15/10 A303 RMK A01 T01460098  RH  073%=      5-min Rain = 0
KCL1 101321Z 23001KT 15/10 A303 RMK A01 T01460098  RH  073%=      5-min Rain = 0
KCL1 101322Z 24001KT 15/10 A303 RMK A01 T01470098  RH  072%=      5-min Rain = 0
KCL1 101323Z 23001KT 15/10 A303 RMK A01 T01470099  RH  073%=      5-min Rain = 0
KCL1 101324Z 23002KT 15/10 A303 RMK A01 T01480098  RH  072%=      5-min Rain = 0
KCL1 101325Z 23000KT 15/10 A303 RMK A01 T01490098  RH  072%=      5-min Rain = 0
KCL1 101326Z 20000KT 15/10 A303 RMK A01 T01490099  RH  072%=      5-min Rain = 0
KCL1 101327Z 19001KT 15/10 A303 RMK A01 T01490098  RH  071%=      5-min Rain = 0
KCL1 101328Z 23001KT 15/10 A303 RMK A01 T01500098  RH  071%=      5-min Rain = 0
KCL1 101329Z 22000KT 15/10 A303 RMK A01 T01510099  RH  071%=      5-min Rain = 0
KCL1 101330Z 00000KT 15/10 A303 RMK A01 T01510098  RH  070%=      5-min Rain = 0
KCL1 101331Z 00000KT 15/10 A303 RMK A01 T01520099  RH  070%=      5-min Rain = 0
KCL1 101332Z 00000KT 15/10 A303 RMK A01 T01530099  RH  070%=      5-min Rain = 0
KCL1 101333Z 00000KT 15/10 A303 RMK A01 T01530099  RH  070%=      5-min Rain = 0
KCL1 101334Z 00000KT 15/10 A303 RMK A01 T01530099  RH  070%=      5-min Rain = 0
KCL1 101335Z 00000KT 15/10 A303 RMK A01 T01540099  RH  070%=      5-min Rain = 0
KCL1 101336Z 20000KT 15/10 A303 RMK A01 T01540099  RH  070%=      5-min Rain = 0
KCL1 101337Z 18001KT 15/10 A303 RMK A01 T01540099  RH  069%=      5-min Rain = 0
KCL1 101338Z 22000KT 16/10 A303 RMK A01 T01550100  RH  070%=      5-min Rain = 0
KCL1 101339Z 19000KT 16/10 A303 RMK A01 T01550100  RH  070%=      5-min Rain = 0
KCL1 101340Z 17002KT 16/10 A303 RMK A01 T01560100  RH  070%=      5-min Rain = 0
KCL1 101341Z 18002KT 16/10 A303 RMK A01 T01560101  RH  070%=      5-min Rain = 0
KCL1 101342Z 17003KT 16/10 A303 RMK A01 T01580102  RH  069%=      5-min Rain = 0
KCL1 101343Z 18003KT 16/10 A303 RMK A01 T01580101  RH  069%=      5-min Rain = 0
KCL1 101344Z 17003KT 16/10 A303 RMK A01 T01580102  RH  069%=      5-min Rain = 0
KCL1 101345Z 19002KT 16/10 A303 RMK A01 T01600104  RH  069%=      5-min Rain = 0
KCL1 101346Z 18004KT 16/10 A303 RMK A01 T01610103  RH  069%=      5-min Rain = 0
KCL1 101347Z 18003KT 16/10 A303 RMK A01 T01610103  RH  068%=      5-min Rain = 0
KCL1 101348Z 20002KT 16/11 A303 RMK A01 T01620105  RH  069%=      5-min Rain = 0
KCL1 101349Z 19003KT 16/10 A303 RMK A01 T01630104  RH  068%=      5-min Rain = 0
KCL1 101350Z 19001KT 16/10 A303 RMK A01 T01630102  RH  067%=      5-min Rain = 0
KCL1 101351Z 20002KT 16/10 A303 RMK A01 T01630102  RH  067%=      5-min Rain = 0
KCL1 101352Z 19002KT 16/10 A303 RMK A01 T01630102  RH  067%=      5-min Rain = 0
KCL1 101353Z 19002KT 16/10 A303 RMK A01 T01630102  RH  067%=      5-min Rain = 0
KCL1 101354Z 19002KT 16/10 A303 RMK A01 T01620102  RH  067%=      5-min Rain = 0
KCL1 101355Z 18003KT 16/10 A303 RMK A01 T01620102  RH  068%=      5-min Rain = 0
KCL1 101356Z 20003KT 16/10 A303 RMK A01 T01630101  RH  067%=      5-min Rain = 0
KCL1 101357Z 20003KT 16/10 A303 RMK A01 T01630101  RH  067%=      5-min Rain = 0
KCL1 101358Z 19004KT 16/10 A303 RMK A01 T01630101  RH  067%=      5-min Rain = 0
KCL1 101359Z 18003KT 16/10 A303 RMK A01 T01620102  RH  067%=      5-min Rain = 0
KCL1 101400Z 19003KT 16/10 A303 RMK A01 T01620102  RH  067%=      5-min Rain = 0
KCL1 101401Z 19003KT 16/10 A303 RMK A01 T01630102  RH  067%=      5-min Rain = 0
KCL1 101402Z 19004KT 16/10 A303 RMK A01 T01630102  RH  067%=      5-min Rain = 0
KCL1 101403Z 20004KT 16/10 A303 RMK A01 T01640102  RH  067%=      5-min Rain = 0
KCL1 101404Z 18003KT 16/10 A303 RMK A01 T01640102  RH  067%=      5-min Rain = 0
KCL1 101405Z 19004KT 16/10 A303 RMK A01 T01630101  RH  067%=      5-min Rain = 0
KCL1 101406Z 17004KT 16/10 A303 RMK A01 T01640103  RH  067%=      5-min Rain = 0
KCL1 101407Z 16003KT 17/10 A303 RMK A01 T01650104  RH  067%=      5-min Rain = 0
KCL1 101408Z 17003KT 17/10 A303 RMK A01 T01660104  RH  067%=      5-min Rain = 0
KCL1 101409Z 17004KT 17/11 A303 RMK A01 T01680105  RH  067%=      5-min Rain = 0
KCL1 101410Z 16006KT 17/10 A303 RMK A01 T01690104  RH  065%=      5-min Rain = 0
KCL1 101411Z 16006KT 17/10 A303 RMK A01 T01690103  RH  065%=      5-min Rain = 0
KCL1 101412Z 16005KT 17/10 A303 RMK A01 T01680102  RH  065%=      5-min Rain = 0
KCL1 101413Z 17005KT 17/10 A303 RMK A01 T01680104  RH  066%=      5-min Rain = 0
KCL1 101414Z 17005KT 17/10 A303 RMK A01 T01680104  RH  066%=      5-min Rain = 0
KCL1 101415Z 17005KT 17/10 A303 RMK A01 T01690103  RH  065%=      5-min Rain = 0
KCL1 101421Z 17006KT 17/10 A303 RMK A01 T01720104  RH  064%=      5-min Rain = 0
KCL1 101422Z 18005KT 17/10 A303 RMK A01 T01710103  RH  064%=      5-min Rain = 0
KCL1 101423Z 17005KT 17/10 A303 RMK A01 T01710104  RH  064%=      5-min Rain = 0
KCL1 101424Z 16006KT 17/10 A303 RMK A01 T01710104  RH  064%=      5-min Rain = 0
KCL1 101425Z 16006KT 17/10 A303 RMK A01 T01720104  RH  064%=      5-min Rain = 0
KCL1 101426Z 17005KT 17/10 A303 RMK A01 T01730104  RH  064%=      5-min Rain = 0
KCL1 101427Z 17006KT 17/10 A303 RMK A01 T01730104  RH  063%=      5-min Rain = 0
KCL1 101428Z 17005KT 17/10 A303 RMK A01 T01730104  RH  064%=      5-min Rain = 0
KCL1 101429Z 17004KT 17/10 A303 RMK A01 T01730104  RH  064%=      5-min Rain = 0
KCL1 101430Z 18006KT 17/10 A303 RMK A01 T01740104  RH  063%=      5-min Rain = 0
KCL1 101431Z 17007KT 17/10 A303 RMK A01 T01740103  RH  063%=      5-min Rain = 0
KCL1 101432Z 17006KT 17/10 A303 RMK A01 T01740103  RH  063%=      5-min Rain = 0
KCL1 101433Z 18005KT 17/10 A303 RMK A01 T01740104  RH  063%=      5-min Rain = 0
KCL1 101434Z 17005KT 17/10 A303 RMK A01 T01740104  RH  063%=      5-min Rain = 0
KCL1 101435Z 18005KT 17/10 A303 RMK A01 T01740103  RH  063%=      5-min Rain = 0
KCL1 101436Z 17005KT 18/11 A303 RMK A01 T01750106  RH  064%=      5-min Rain = 0
KCL1 101437Z 18006KT 18/10 A303 RMK A01 T01770104  RH  062%=      5-min Rain = 0
KCL1 101438Z 18005KT 18/10 A303 RMK A01 T01770103  RH  062%=      5-min Rain = 0
KCL1 101439Z 16006KT 18/10 A303 RMK A01 T01770104  RH  062%=      5-min Rain = 0
KCL1 101440Z 17005KT 18/11 A303 RMK A01 T01770105  RH  063%=      5-min Rain = 0
KCL1 101441Z 16006KT 18/11 A303 RMK A01 T01780105  RH  062%=      5-min Rain = 0
KCL1 101442Z 16007KT 18/10 A303 RMK A01 T01780104  RH  062%=      5-min Rain = 0
KCL1 101443Z 18007KT 18/10 A303 RMK A01 T01770104  RH  062%=      5-min Rain = 0
KCL1 101444Z 18007KT 18/10 A303 RMK A01 T01770103  RH  062%=      5-min Rain = 0
KCL1 101445Z 17007KT 18/10 A303 RMK A01 T01770104  RH  062%=      5-min Rain = 0
KCL1 101446Z 18006KT 18/10 A303 RMK A01 T01780104  RH  062%=      5-min Rain = 0
KCL1 101447Z 18006KT 18/11 A303 RMK A01 T01780105  RH  062%=      5-min Rain = 0
KCL1 101448Z 18006KT 18/10 A303 RMK A01 T01780103  RH  061%=      5-min Rain = 0
KCL1 101449Z 18006KT 18/10 A303 RMK A01 T01780104  RH  062%=      5-min Rain = 0
KCL1 101450Z 18005KT 18/11 A303 RMK A01 T01800106  RH  062%=      5-min Rain = 0
KCL1 101451Z 17007KT 18/11 A303 RMK A01 T01810105  RH  061%=      5-min Rain = 0
KCL1 101452Z 18007KT 18/10 A303 RMK A01 T01810104  RH  061%=      5-min Rain = 0
KCL1 101453Z 18006KT 18/10 A3031 RMK A01 T01800103  RH  061%=      5-min Rain = 0
KCL1 101454Z 16008KT 18/11 A3031 RMK A01 T01800105  RH  061%=      5-min Rain = 0
KCL1 101455Z 17006KT 18/11 A3031 RMK A01 T01800105  RH  061%=      5-min Rain = 0
KCL1 101456Z 18005KT 18/11 A3031 RMK A01 T01810107  RH  062%=      5-min Rain = 0
KCL1 101457Z 16007KT 18/10 A3031 RMK A01 T01820104  RH  060%=      5-min Rain = 0
KCL1 101458Z 17007KT 18/11 A3031 RMK A01 T01830106  RH  061%=      5-min Rain = 0
KCL1 101459Z 16007KT 18/11 A3031 RMK A01 T01840107  RH  061%=      5-min Rain = 0
KCL1 101500Z 17006KT 18/11 A3031 RMK A01 T01840106  RH  060%=      5-min Rain = 0
KCL1 101501Z 17006KT 19/11 A3031 RMK A01 T01850107  RH  060%=      5-min Rain = 0
KCL1 101502Z 16006KT 19/11 A3031 RMK A01 T01850109  RH  061%=      5-min Rain = 0
KCL1 101503Z 17008KT 19/11 A3031 RMK A01 T01860108  RH  060%=      5-min Rain = 0
KCL1 101504Z 17008KT 19/11 A303 RMK A01 T01870107  RH  060%=      5-min Rain = 0
KCL1 101505Z 18006KT 19/11 A303 RMK A01 T01860107  RH  060%=      5-min Rain = 0
KCL1 101506Z 18008KT 19/11 A303 RMK A01 T01860106  RH  060%=      5-min Rain = 0
KCL1 101507Z 19007KT 19/11 A303 RMK A01 T01870105  RH  059%=      5-min Rain = 0
KCL1 101508Z 17006KT 19/11 A303 RMK A01 T01850106  RH  060%=      5-min Rain = 0
KCL1 101509Z 17007KT 19/11 A303 RMK A01 T01860107  RH  060%=      5-min Rain = 0
KCL1 101510Z 16007KT 19/11 A303 RMK A01 T01870107  RH  060%=      5-min Rain = 0
KCL1 101511Z 17007KT 19/11 A303 RMK A01 T01870107  RH  059%=      5-min Rain = 0
KCL1 101512Z 18006KT 19/11 A3031 RMK A01 T01880106  RH  059%=      5-min Rain = 0
KCL1 101513Z 17006KT 19/11 A3031 RMK A01 T01870106  RH  059%=      5-min Rain = 0
KCL1 101514Z 16006KT 19/11 A3031 RMK A01 T01880108  RH  060%=      5-min Rain = 0
KCL1 101515Z 18006KT 19/11 A3031 RMK A01 T01880108  RH  060%=      5-min Rain = 0
KCL1 101516Z 18007KT 19/11 A3031 RMK A01 T01890108  RH  059%=      5-min Rain = 0
KCL1 101517Z 17007KT 19/11 A3031 RMK A01 T01890107  RH  059%=      5-min Rain = 0
KCL1 101518Z 16007KT 19/11 A3031 RMK A01 T01900108  RH  059%=      5-min Rain = 0
KCL1 101519Z 17007KT 19/11 A3031 RMK A01 T01900108  RH  059%=      5-min Rain = 0
KCL1 101520Z 17008KT 19/11 A3031 RMK A01 T01910109  RH  059%=      5-min Rain = 0
KCL1 101521Z 16006KT 19/11 A3031 RMK A01 T01920108  RH  058%=      5-min Rain = 0
KCL1 101522Z 17008KT 19/11 A3031 RMK A01 T01920109  RH  059%=      5-min Rain = 0
KCL1 101523Z 17006KT 19/11 A3031 RMK A01 T01920106  RH  057%=      5-min Rain = 0
KCL1 101524Z 16006KT 19/11 A3031 RMK A01 T01910107  RH  058%=      5-min Rain = 0
KCL1 101525Z 16005KT 19/11 A3031 RMK A01 T01910110  RH  059%=      5-min Rain = 0
KCL1 101526Z 18005KT 19/11 A3031 RMK A01 T01930113  RH  060%=      5-min Rain = 0
KCL1 101527Z 16007KT 20/11 A3031 RMK A01 T01970113  RH  058%=      5-min Rain = 0
KCL1 101528Z 17006KT 20/11 A3031 RMK A01 T01980110  RH  057%=      5-min Rain = 0
KCL1 101529Z 18005KT 20/11 A3031 RMK A01 T01970111  RH  057%=      5-min Rain = 0
KCL1 101530Z 16007KT 20/11 A3031 RMK A01 T01970110  RH  057%=      5-min Rain = 0
KCL1 101531Z 16007KT 20/11 A3031 RMK A01 T01960109  RH  057%=      5-min Rain = 0
KCL1 101532Z 16008KT 20/11 A3031 RMK A01 T01960109  RH  057%=      5-min Rain = 0
KCL1 101533Z 16007KT 20/11 A3031 RMK A01 T01950108  RH  057%=      5-min Rain = 0
KCL1 101534Z 15008KT 20/11 A3031 RMK A01 T01950111  RH  058%=      5-min Rain = 0
KCL1 101535Z 15005KT 20/11 A3031 RMK A01 T01960110  RH  058%=      5-min Rain = 0
KCL1 101536Z 16006G11KT 20/11 A3031 RMK A01 T01970113  RH  058%=      5-min Rain = 0
KCL1 101537Z 17007KT 20/11 A3031 RMK A01 T01990111  RH  057%=      5-min Rain = 0
KCL1 101538Z 16008KT 20/11 A3031 RMK A01 T01990111  RH  057%=      5-min Rain = 0
KCL1 101539Z 17006KT 20/11 A3031 RMK A01 T01990111  RH  057%=      5-min Rain = 0
KCL1 101540Z 17004KT 20/11 A3031 RMK A01 T02000113  RH  057%=      5-min Rain = 0
KCL1 101541Z 17005KT 20/11 A3031 RMK A01 T02010113  RH  057%=      5-min Rain = 0
KCL1 101542Z 17007KT 20/11 A3031 RMK A01 T02020111  RH  056%=      5-min Rain = 0
KCL1 101543Z 18004KT 20/11 A3031 RMK A01 T02020108  RH  055%=      5-min Rain = 0
KCL1 101544Z 17004KT 20/11 A3031 RMK A01 T02000112  RH  057%=      5-min Rain = 0
KCL1 101545Z 19004KT 20/11 A3031 RMK A01 T02020112  RH  056%=      5-min Rain = 0
KCL1 101546Z 19007KT 20/11 A3031 RMK A01 T02030111  RH  055%=      5-min Rain = 0
KCL1 101547Z 19008KT 20/11 A3031 RMK A01 T02040111  RH  055%=      5-min Rain = 0
KCL1 101548Z 18006KT 20/11 A3031 RMK A01 T02030110  RH  055%=      5-min Rain = 0
KCL1 101549Z 17008KT 20/12 A3031 RMK A01 T02030115  RH  057%=      5-min Rain = 0
KCL1 101550Z 16009KT 21/11 A3031 RMK A01 T02050113  RH  056%=      5-min Rain = 0
KCL1 101551Z 18006KT 21/11 A3031 RMK A01 T02050113  RH  056%=      5-min Rain = 0
KCL1 101552Z 19006KT 21/11 A3031 RMK A01 T02060113  RH  055%=      5-min Rain = 0
KCL1 101553Z 19006KT 21/11 A3031 RMK A01 T02060113  RH  055%=      5-min Rain = 0
KCL1 101554Z 19007KT 21/11 A3031 RMK A01 T02070114  RH  055%=      5-min Rain = 0
KCL1 101555Z 19007KT 21/11 A3031 RMK A01 T02080112  RH  054%=      5-min Rain = 0
KCL1 101556Z 19007KT 21/11 A3031 RMK A01 T02070110  RH  053%=      5-min Rain = 0
KCL1 101557Z 17006KT 21/11 A3031 RMK A01 T02060112  RH  055%=      5-min Rain = 0
KCL1 101558Z 19006KT 21/12 A3031 RMK A01 T02070115  RH  056%=      5-min Rain = 0
KCL1 101559Z 20006KT 21/11 A3031 RMK A01 T02080113  RH  054%=      5-min Rain = 0
KCL1 101600Z 19008KT 21/11 A303 RMK A01 T02080111  RH  054%=      5-min Rain = 0
KCL1 101601Z 18006KT 21/11 A303 RMK A01 T02080112  RH  054%=      5-min Rain = 0
KCL1 101602Z 18006KT 21/11 A303 RMK A01 T02080112  RH  054%=      5-min Rain = 0
KCL1 101603Z 16006KT 21/12 A303 RMK A01 T02090116  RH  055%=      5-min Rain = 0
KCL1 101604Z 17010KT 21/11 A303 RMK A01 T02100114  RH  054%=      5-min Rain = 0
KCL1 101605Z 17008KT 21/11 A303 RMK A01 T02100112  RH  053%=      5-min Rain = 0
KCL1 101606Z 17008KT 21/11 A303 RMK A01 T02100113  RH  054%=      5-min Rain = 0
KCL1 101607Z 20008KT 21/11 A303 RMK A01 T02100112  RH  054%=      5-min Rain = 0
KCL1 101608Z 18007KT 21/11 A303 RMK A01 T02100112  RH  054%=      5-min Rain = 0
KCL1 101609Z 19006KT 21/12 A303 RMK A01 T02090116  RH  055%=      5-min Rain = 0
KCL1 101610Z 21008KT 21/11 A303 RMK A01 T02120113  RH  053%=      5-min Rain = 0
KCL1 101611Z 18006KT 21/11 A303 RMK A01 T02120112  RH  053%=      5-min Rain = 0
KCL1 101612Z 16007KT 21/11 A303 RMK A01 T02130114  RH  053%=      5-min Rain = 0
KCL1 101613Z 16007KT 21/12 A303 RMK A01 T02130116  RH  054%=      5-min Rain = 0
KCL1 101614Z 17007KT 22/12 A303 RMK A01 T02160119  RH  054%=      5-min Rain = 0
KCL1 101615Z 17008KT 22/12 A303 RMK A01 T02180115  RH  052%=      5-min Rain = 0
KCL1 101616Z 17009KT 22/11 A303 RMK A01 T02190114  RH  051%=      5-min Rain = 0
KCL1 101617Z 17006KT 22/11 A303 RMK A01 T02190113  RH  051%=      5-min Rain = 0
KCL1 101618Z 17008KT 22/11 A303 RMK A01 T02190114  RH  051%=      5-min Rain = 0
KCL1 101619Z 18009KT 22/12 A303 RMK A01 T02190115  RH  052%=      5-min Rain = 0
KCL1 101620Z 17009KT 22/12 A303 RMK A01 T02190115  RH  051%=      5-min Rain = 0
KCL1 101621Z 17009KT 22/11 A303 RMK A01 T02190114  RH  051%=      5-min Rain = 0
KCL1 101622Z 17006KT 22/11 A303 RMK A01 T02190113  RH  051%=      5-min Rain = 0
KCL1 101623Z 18007KT 22/12 A303 RMK A01 T02190115  RH  052%=      5-min Rain = 0
KCL1 101624Z 16010KT 22/11 A303 RMK A01 T02190113  RH  051%=      5-min Rain = 0
KCL1 101625Z 16009KT 22/11 A303 RMK A01 T02200113  RH  051%=      5-min Rain = 0
KCL1 101626Z 17009KT 22/12 A303 RMK A01 T02200115  RH  051%=      5-min Rain = 0
KCL1 101627Z 16010KT 22/11 A3029 RMK A01 T02220114  RH  050%=      5-min Rain = 0
KCL1 101628Z 17010KT 22/11 A3029 RMK A01 T02220112  RH  050%=      5-min Rain = 0
KCL1 101629Z 19010KT 22/11 A3029 RMK A01 T02220113  RH  050%=      5-min Rain = 0
KCL1 101630Z 17011KT 22/11 A3029 RMK A01 T02210112  RH  050%=      5-min Rain = 0
KCL1 101631Z 17007KT 22/11 A3029 RMK A01 T02210114  RH  051%=      5-min Rain = 0
KCL1 101632Z 19006KT 22/12 A3029 RMK A01 T02240117  RH  051%=      5-min Rain = 0
KCL1 101633Z 18009KT 23/11 A3029 RMK A01 T02260113  RH  049%=      5-min Rain = 0
KCL1 101634Z 17010KT 23/11 A3029 RMK A01 T02270111  RH  048%=      5-min Rain = 0
KCL1 101635Z 17008KT 23/11 A3029 RMK A01 T02260111  RH  048%=      5-min Rain = 0
KCL1 101636Z 17010KT 23/11 A3029 RMK A01 T02270112  RH  048%=      5-min Rain = 0
KCL1 101637Z 17008KT 23/12 A3029 RMK A01 T02270115  RH  049%=      5-min Rain = 0
KCL1 101638Z 19007KT 23/11 A3029 RMK A01 T02280114  RH  049%=      5-min Rain = 0
KCL1 101639Z 18009KT 23/11 A3029 RMK A01 T02300114  RH  048%=      5-min Rain = 0
KCL1 101640Z 18010KT 23/11 A3029 RMK A01 T02320114  RH  047%=      5-min Rain = 0
KCL1 101641Z 16008KT 23/12 A3029 RMK A01 T02320117  RH  048%=      5-min Rain = 0
KCL1 101642Z 14006KT 23/12 A3029 RMK A01 T02320118  RH  048%=      5-min Rain = 0
KCL1 101643Z 17009KT 23/12 A3029 RMK A01 T02330117  RH  048%=      5-min Rain = 0
KCL1 101644Z 20010G15KT 23/11 A3029 RMK A01 T02330113  RH  047%=      5-min Rain = 0
KCL1 101645Z 17011KT 23/11 A3029 RMK A01 T02330112  RH  046%=      5-min Rain = 0
KCL1 101646Z 16011KT 23/11 A3029 RMK A01 T02330111  RH  046%=      5-min Rain = 0
KCL1 101647Z 16008KT 23/11 A3029 RMK A01 T02320112  RH  047%=      5-min Rain = 0
KCL1 101648Z 17010KT 23/11 A3029 RMK A01 T02320113  RH  047%=      5-min Rain = 0
KCL1 101649Z 16009KT 23/11 A3029 RMK A01 T02320112  RH  047%=      5-min Rain = 0
KCL1 101650Z 20009KT 23/11 A3029 RMK A01 T02320112  RH  047%=      5-min Rain = 0
KCL1 101651Z 18007KT 23/11 A3029 RMK A01 T02330111  RH  046%=      5-min Rain = 0
KCL1 101652Z 18005KT 24/12 A3029 RMK A01 T02360115  RH  047%=      5-min Rain = 0
KCL1 101653Z 21006KT 24/11 A3029 RMK A01 T02380112  RH  045%=      5-min Rain = 0
KCL1 101654Z 20006KT 24/11 A3029 RMK A01 T02390112  RH  045%=      5-min Rain = 0
KCL1 101655Z 21008G13KT 24/11 A3029 RMK A01 T02390111  RH  044%=      5-min Rain = 0
KCL1 101656Z 19010KT 24/11 A3029 RMK A01 T02400110  RH  044%=      5-min Rain = 0
KCL1 101657Z 19009KT 24/11 A3029 RMK A01 T02370108  RH  044%=      5-min Rain = 0
KCL1 101658Z 21009KT 24/11 A3029 RMK A01 T02360110  RH  045%=      5-min Rain = 0
KCL1 101659Z 22010KT 24/11 A3029 RMK A01 T02370108  RH  044%=      5-min Rain = 0
KCL1 101700Z 22010KT 24/11 A3029 RMK A01 T02360107  RH  044%=      5-min Rain = 0
KCL1 101701Z 20008KT 23/11 A3029 RMK A01 T02340106  RH  044%=      5-min Rain = 0
KCL1 101702Z 21007KT 23/11 A3029 RMK A01 T02330108  RH  045%=      5-min Rain = 0
KCL1 101703Z 22007KT 23/11 A3029 RMK A01 T02340109  RH  045%=      5-min Rain = 0
KCL1 101704Z 22006KT 24/11 A3029 RMK A01 T02370112  RH  045%=      5-min Rain = 0
KCL1 101705Z 20009KT 24/11 A3029 RMK A01 T02400110  RH  044%=      5-min Rain = 0
KCL1 101706Z 21009KT 24/11 A3029 RMK A01 T02410111  RH  044%=      5-min Rain = 0
KCL1 101707Z 20010KT 24/11 A3029 RMK A01 T02410110  RH  044%=      5-min Rain = 0
KCL1 101708Z 20010KT 24/11 A3029 RMK A01 T02410109  RH  043%=      5-min Rain = 0
KCL1 101709Z 20008KT 24/11 A3029 RMK A01 T02400109  RH  044%=      5-min Rain = 0
KCL1 101710Z 19007KT 24/11 A3029 RMK A01 T02400111  RH  044%=      5-min Rain = 0
KCL1 101711Z 19008KT 24/11 A3028 RMK A01 T02410111  RH  044%=      5-min Rain = 0
KCL1 101712Z 21011KT 24/11 A3028 RMK A01 T02420110  RH  044%=      5-min Rain = 0
KCL1 101713Z 18010KT 24/11 A3028 RMK A01 T02400109  RH  044%=      5-min Rain = 0
KCL1 101714Z 20007KT 24/11 A3028 RMK A01 T02390111  RH  044%=      5-min Rain = 0
KCL1 101715Z 20009KT 24/11 A3028 RMK A01 T02400109  RH  043%=      5-min Rain = 0
KCL1 101716Z 20008KT 24/11 A3028 RMK A01 T02400108  RH  043%=      5-min Rain = 0
KCL1 101717Z 21010KT 24/11 A3028 RMK A01 T02400108  RH  043%=      5-min Rain = 0
KCL1 101718Z 21012KT 24/11 A3028 RMK A01 T02390107  RH  043%=      5-min Rain = 0
KCL1 101719Z 20012KT 24/11 A3028 RMK A01 T02390108  RH  044%=      5-min Rain = 0
KCL1 101720Z 21012G17KT 24/11 A3028 RMK A01 T02390108  RH  044%=      5-min Rain = 0
KCL1 101721Z 21012KT 24/11 A3028 RMK A01 T02390108  RH  043%=      5-min Rain = 0
KCL1 101722Z 21010KT 24/11 A3028 RMK A01 T02400108  RH  043%=      5-min Rain = 0
KCL1 101723Z 20008KT 24/11 A3028 RMK A01 T02400109  RH  044%=      5-min Rain = 0
KCL1 101724Z 20008KT 24/11 A3028 RMK A01 T02420110  RH  043%=      5-min Rain = 0
KCL1 101725Z 17009KT 24/11 A3028 RMK A01 T02440112  RH  043%=      5-min Rain = 0
KCL1 101726Z 16012KT 25/11 A3028 RMK A01 T02450113  RH  044%=      5-min Rain = 0
KCL1 101727Z 16012KT 25/11 A3028 RMK A01 T02450114  RH  044%=      5-min Rain = 0
KCL1 101728Z 15011KT 25/11 A3028 RMK A01 T02450114  RH  044%=      5-min Rain = 0
KCL1 101729Z 15013KT 25/11 A3028 RMK A01 T02450113  RH  043%=      5-min Rain = 0
KCL1 101730Z 15010G15KT 24/11 A3028 RMK A01 T02440112  RH  043%=      5-min Rain = 0
KCL1 101731Z 17009KT 24/11 A3028 RMK A01 T02430114  RH  044%=      5-min Rain = 0
KCL1 101732Z 20008KT 24/11 A3028 RMK A01 T02440112  RH  044%=      5-min Rain = 0
KCL1 101733Z 19010KT 25/11 A3028 RMK A01 T02450112  RH  043%=      5-min Rain = 0
KCL1 101734Z 22006KT 25/11 A3028 RMK A01 T02460110  RH  042%=      5-min Rain = 0
KCL1 101735Z 23007KT 25/11 A3028 RMK A01 T02460111  RH  043%=      5-min Rain = 0
KCL1 101736Z 21009G14KT 25/11 A3028 RMK A01 T02470109  RH  042%=      5-min Rain = 0
KCL1 101737Z 22008KT 25/11 A3028 RMK A01 T02470109  RH  042%=      5-min Rain = 0
KCL1 101738Z 24008G14KT 25/11 A3028 RMK A01 T02470110  RH  042%=      5-min Rain = 0
KCL1 101739Z 22010G15KT 25/11 A3028 RMK A01 T02470109  RH  042%=      5-min Rain = 0
KCL1 101740Z 20011KT 25/11 A3028 RMK A01 T02480107  RH  041%=      5-min Rain = 0
KCL1 101741Z 20013KT 25/11 A3028 RMK A01 T02470108  RH  042%=      5-min Rain = 0
KCL1 101742Z 18008KT 25/11 A3028 RMK A01 T02460111  RH  042%=      5-min Rain = 0
KCL1 101743Z 20007KT 25/11 A3028 RMK A01 T02480114  RH  043%=      5-min Rain = 0
KCL1 101744Z 20008KT 25/11 A3028 RMK A01 T02490110  RH  042%=      5-min Rain = 0
KCL1 101745Z 22009KT 25/11 A3028 RMK A01 T02490110  RH  042%=      5-min Rain = 0
KCL1 101746Z 20007KT 25/11 A3028 RMK A01 T02510112  RH  042%=      5-min Rain = 0
KCL1 101747Z 20009KT 25/11 A3028 RMK A01 T02530110  RH  041%=      5-min Rain = 0
KCL1 101748Z 19008KT 25/11 A3028 RMK A01 T02530112  RH  041%=      5-min Rain = 0
KCL1 101749Z 19009KT 25/11 A3028 RMK A01 T02530112  RH  041%=      5-min Rain = 0
KCL1 101750Z 20008KT 25/11 A3028 RMK A01 T02530109  RH  041%=      5-min Rain = 0
KCL1 101751Z 20006KT 25/11 A3028 RMK A01 T02510110  RH  041%=      5-min Rain = 0
KCL1 101752Z 21005KT 25/11 A3028 RMK A01 T02510110  RH  041%=      5-min Rain = 0
KCL1 101753Z 18006KT 25/11 A3028 RMK A01 T02510110  RH  041%=      5-min Rain = 0
KCL1 101754Z 16007KT 25/12 A3028 RMK A01 T02520115  RH  042%=      5-min Rain = 0
KCL1 101755Z 16011KT 25/11 A3028 RMK A01 T02530113  RH  042%=      5-min Rain = 0
KCL1 101756Z 17009KT 25/11 A3028 RMK A01 T02520111  RH  041%=      5-min Rain = 0
KCL1 101757Z 20008KT 25/11 A3028 RMK A01 T02500113  RH  042%=      5-min Rain = 0
KCL1 101758Z 18009KT 25/11 A3028 RMK A01 T02520112  RH  041%=      5-min Rain = 0
KCL1 101759Z 18009KT 25/11 A3028 RMK A01 T02540112  RH  041%=      5-min Rain = 0
KCL1 101800Z 17011KT 26/11 A3028 RMK A01 T02550111  RH  041%=      5-min Rain = 0
KCL1 101801Z 15007KT 25/11 A3028 RMK A01 T02540113  RH  041%=      5-min Rain = 0
KCL1 101802Z 19014KT 25/11 A3027 RMK A01 T02540112  RH  041%=      5-min Rain = 0
KCL1 101803Z 20009KT 25/11 A3028 RMK A01 T02530108  RH  040%=      5-min Rain = 0
KCL1 101804Z 20008KT 25/11 A3028 RMK A01 T02520109  RH  041%=      5-min Rain = 0
KCL1 101805Z 20009KT 25/11 A3028 RMK A01 T02540110  RH  040%=      5-min Rain = 0
KCL1 101806Z 20008KT 26/11 A3028 RMK A01 T02550109  RH  040%=      5-min Rain = 0
KCL1 101807Z 18005KT 25/11 A3028 RMK A01 T02540106  RH  040%=      5-min Rain = 0
KCL1 101808Z 16007KT 25/11 A3028 RMK A01 T02510110  RH  041%=      5-min Rain = 0
KCL1 101809Z 16007KT 25/11 A3028 RMK A01 T02510113  RH  042%=      5-min Rain = 0
KCL1 101810Z 14007KT 25/11 A3028 RMK A01 T02520110  RH  041%=      5-min Rain = 0
KCL1 101811Z 15007KT 25/11 A3028 RMK A01 T02510111  RH  042%=      5-min Rain = 0
KCL1 101812Z 17006G12KT 25/12 A3027 RMK A01 T02510115  RH  043%=      5-min Rain = 0
KCL1 101813Z 16010KT 25/12 A3027 RMK A01 T02540116  RH  042%=      5-min Rain = 0
KCL1 101814Z 16008KT 26/12 A3027 RMK A01 T02560115  RH  041%=      5-min Rain = 0
KCL1 101815Z 17010KT 26/12 A3027 RMK A01 T02580116  RH  041%=      5-min Rain = 0
KCL1 101816Z 17009KT 26/11 A3028 RMK A01 T02570111  RH  040%=      5-min Rain = 0
KCL1 101817Z 15005KT 26/12 A3027 RMK A01 T02560115  RH  041%=      5-min Rain = 0
KCL1 101818Z 13008KT 26/12 A3027 RMK A01 T02570119  RH  042%=      5-min Rain = 0
KCL1 101819Z 14009KT 26/11 A3027 RMK A01 T02600114  RH  040%=      5-min Rain = 0
KCL1 101820Z 15008KT 26/11 A3027 RMK A01 T02600110  RH  039%=      5-min Rain = 0
KCL1 101821Z 16007KT 26/11 A3027 RMK A01 T02580113  RH  040%=      5-min Rain = 0
KCL1 101822Z 15006KT 26/12 A3027 RMK A01 T02580115  RH  041%=      5-min Rain = 0
KCL1 101823Z 15009KT 26/11 A3027 RMK A01 T02590111  RH  039%=      5-min Rain = 0
KCL1 101824Z 15008KT 26/11 A3027 RMK A01 T02590112  RH  040%=      5-min Rain = 0
KCL1 101825Z 16006KT 26/12 A3027 RMK A01 T02590117  RH  041%=      5-min Rain = 0
KCL1 101826Z 17006KT 26/12 A3027 RMK A01 T02610115  RH  040%=      5-min Rain = 0
KCL1 101827Z 18010KT 26/11 A3027 RMK A01 T02620112  RH  039%=      5-min Rain = 0
KCL1 101828Z 15005KT 26/12 A3027 RMK A01 T02620115  RH  040%=      5-min Rain = 0
KCL1 101829Z 14006KT 26/12 A3027 RMK A01 T02630115  RH  040%=      5-min Rain = 0
KCL1 101830Z 13008KT 26/11 A3027 RMK A01 T02630113  RH  039%=      5-min Rain = 0
KCL1 101831Z 15010KT 26/12 A3027 RMK A01 T02620118  RH  041%=      5-min Rain = 0
KCL1 101832Z 19011KT 27/11 A3027 RMK A01 T02650114  RH  039%=      5-min Rain = 0
KCL1 101833Z 17009KT 27/11 A3027 RMK A01 T02650112  RH  038%=      5-min Rain = 0
KCL1 101834Z 17010KT 26/11 A3027 RMK A01 T02640113  RH  039%=      5-min Rain = 0
KCL1 101835Z 17008KT 26/11 A3027 RMK A01 T02630113  RH  039%=      5-min Rain = 0
KCL1 101836Z 17007KT 26/11 A3027 RMK A01 T02620114  RH  039%=      5-min Rain = 0
KCL1 101837Z 17007KT 26/11 A3027 RMK A01 T02610109  RH  038%=      5-min Rain = 0
KCL1 101838Z 16008KT 26/11 A3027 RMK A01 T02600112  RH  040%=      5-min Rain = 0
KCL1 101839Z 13005KT 26/11 A3027 RMK A01 T02590111  RH  040%=      5-min Rain = 0
KCL1 101840Z 13007KT 26/11 A3027 RMK A01 T02590110  RH  039%=      5-min Rain = 0
KCL1 101841Z 17008KT 26/11 A3027 RMK A01 T02590112  RH  040%=      5-min Rain = 0
KCL1 101842Z 17008KT 26/11 A3027 RMK A01 T02600109  RH  039%=      5-min Rain = 0
KCL1 101843Z 21005KT 26/11 A3027 RMK A01 T02610109  RH  039%=      5-min Rain = 0
KCL1 101844Z 20006KT 26/11 A3027 RMK A01 T02620111  RH  039%=      5-min Rain = 0
KCL1 101845Z 18005KT 26/11 A3027 RMK A01 T02640108  RH  038%=      5-min Rain = 0
KCL1 101846Z 19007G12KT 26/11 A3027 RMK A01 T02640110  RH  038%=      5-min Rain = 0
KCL1 101847Z 20007KT 27/11 A3027 RMK A01 T02650110  RH  038%=      5-min Rain = 0
KCL1 101848Z 20007KT 27/11 A3027 RMK A01 T02660106  RH  037%=      5-min Rain = 0
KCL1 101849Z 21007KT 26/11 A3027 RMK A01 T02630107  RH  038%=      5-min Rain = 0
KCL1 101850Z 21006KT 26/11 A3027 RMK A01 T02620107  RH  038%=      5-min Rain = 0
KCL1 101851Z 21005KT 26/11 A3027 RMK A01 T02620107  RH  038%=      5-min Rain = 0
KCL1 101852Z 19006KT 26/11 A3027 RMK A01 T02630108  RH  038%=      5-min Rain = 0
KCL1 101853Z 14007KT 26/11 A3027 RMK A01 T02640112  RH  039%=      5-min Rain = 0
KCL1 101854Z 17007KT 26/11 A3027 RMK A01 T02640112  RH  039%=      5-min Rain = 0
KCL1 101855Z 15009KT 26/11 A3027 RMK A01 T02640113  RH  039%=      5-min Rain = 0
KCL1 101856Z 14010KT 26/11 A3027 RMK A01 T02640112  RH  038%=      5-min Rain = 0
KCL1 101857Z 15009KT 26/11 A3027 RMK A01 T02640111  RH  038%=      5-min Rain = 0
KCL1 101858Z 16011KT 26/11 A3026 RMK A01 T02640113  RH  039%=      5-min Rain = 0
KCL1 101859Z 16009G14KT 27/11 A3026 RMK A01 T02650112  RH  039%=      5-min Rain = 0
KCL1 101900Z 17007KT 27/11 A3026 RMK A01 T02650113  RH  039%=      5-min Rain = 0
KCL1 101901Z 17007KT 27/11 A3026 RMK A01 T02660110  RH  038%=      5-min Rain = 0
KCL1 101902Z 19005KT 27/11 A3026 RMK A01 T02650108  RH  037%=      5-min Rain = 0
KCL1 101903Z 19006KT 26/11 A3026 RMK A01 T02640109  RH  038%=      5-min Rain = 0
KCL1 101904Z 19011KT 27/11 A3026 RMK A01 T02650107  RH  037%=      5-min Rain = 0
KCL1 101905Z 19008KT 26/11 A3026 RMK A01 T02640107  RH  037%=      5-min Rain = 0
KCL1 101906Z 18005KT 26/11 A3026 RMK A01 T02640107  RH  037%=      5-min Rain = 0
KCL1 101907Z 18007KT 26/11 A3026 RMK A01 T02640112  RH  039%=      5-min Rain = 0
KCL1 101908Z 17010KT 27/11 A3026 RMK A01 T02680112  RH  038%=      5-min Rain = 0
KCL1 101909Z 18006KT 27/11 A3026 RMK A01 T02690114  RH  038%=      5-min Rain = 0
KCL1 101910Z 18007KT 27/11 A3026 RMK A01 T02710110  RH  037%=      5-min Rain = 0
KCL1 101911Z 19008KT 27/11 A3026 RMK A01 T02690108  RH  037%=      5-min Rain = 0
KCL1 101912Z 19007KT 27/11 A3026 RMK A01 T02680107  RH  037%=      5-min Rain = 0
KCL1 101913Z 20004KT 27/11 A3026 RMK A01 T02660111  RH  038%=      5-min Rain = 0
KCL1 101914Z 18003KT 27/11 A3026 RMK A01 T02670111  RH  038%=      5-min Rain = 0
KCL1 101915Z 20007KT 27/11 A3026 RMK A01 T02690111  RH  037%=      5-min Rain = 0
KCL1 101916Z 22006KT 27/11 A3026 RMK A01 T02700109  RH  037%=      5-min Rain = 0
KCL1 101917Z 19006G12KT 27/11 A3026 RMK A01 T02700108  RH  036%=      5-min Rain = 0
KCL1 101918Z 18009KT 27/11 A3026 RMK A01 T02700113  RH  037%=      5-min Rain = 0
KCL1 101919Z 17006G11KT 27/11 A3026 RMK A01 T02700112  RH  037%=      5-min Rain = 0
KCL1 101920Z 17009KT 27/11 A3026 RMK A01 T02700114  RH  038%=      5-min Rain = 0
KCL1 101921Z 16008KT 27/12 A3026 RMK A01 T02700115  RH  038%=      5-min Rain = 0
KCL1 101922Z 14009KT 27/12 A3026 RMK A01 T02700115  RH  038%=      5-min Rain = 0
KCL1 101923Z 15008KT 27/12 A3025 RMK A01 T02700118  RH  039%=      5-min Rain = 0
KCL1 101924Z 14006KT 27/11 A3025 RMK A01 T02720114  RH  037%=      5-min Rain = 0
KCL1 101925Z 16002KT 27/11 A3025 RMK A01 T02710114  RH  038%=      5-min Rain = 0
KCL1 101926Z 14005KT 27/12 A3025 RMK A01 T02700115  RH  038%=      5-min Rain = 0
KCL1 101927Z 15006KT 27/12 A3025 RMK A01 T02710119  RH  039%=      5-min Rain = 0
KCL1 101928Z 15007KT 27/12 A3025 RMK A01 T02730116  RH  038%=      5-min Rain = 0
KCL1 101929Z 15006KT 27/11 A3025 RMK A01 T02730114  RH  037%=      5-min Rain = 0
KCL1 101930Z 14007G12KT 27/12 A3025 RMK A01 T02740119  RH  038%=      5-min Rain = 0
KCL1 101931Z 14009KT 27/12 A3025 RMK A01 T02740117  RH  038%=      5-min Rain = 0
KCL1 101932Z 15007KT 28/12 A3025 RMK A01 T02750116  RH  037%=      5-min Rain = 0
KCL1 101933Z 20005KT 28/11 A3025 RMK A01 T02750113  RH  036%=      5-min Rain = 0
KCL1 101934Z 18006KT 28/11 A3025 RMK A01 T02750110  RH  036%=      5-min Rain = 0
KCL1 101935Z 20008G13KT 27/11 A3025 RMK A01 T02740113  RH  037%=      5-min Rain = 0
KCL1 101936Z 20010KT 28/11 A3025 RMK A01 T02750110  RH  036%=      5-min Rain = 0
KCL1 101937Z 19008KT 28/11 A3025 RMK A01 T02760114  RH  036%=      5-min Rain = 0
KCL1 101938Z 19010KT 28/11 A3024 RMK A01 T02760110  RH  035%=      5-min Rain = 0
KCL1 101939Z 18009KT 28/11 A3024 RMK A01 T02760111  RH  036%=      5-min Rain = 0
KCL1 101940Z 15004KT 28/11 A3024 RMK A01 T02750111  RH  036%=      5-min Rain = 0
KCL1 101941Z 19007KT 28/11 A3024 RMK A01 T02750113  RH  037%=      5-min Rain = 0
KCL1 101942Z 22004KT 28/11 A3024 RMK A01 T02770111  RH  036%=      5-min Rain = 0
KCL1 101943Z 23004KT 28/11 A3024 RMK A01 T02780107  RH  034%=      5-min Rain = 0
KCL1 101944Z 21003KT 28/11 A3024 RMK A01 T02750108  RH  035%=      5-min Rain = 0
KCL1 101945Z 19004KT 28/11 A3024 RMK A01 T02750109  RH  036%=      5-min Rain = 0
KCL1 101946Z 20008G13KT 28/11 A3024 RMK A01 T02750110  RH  036%=      5-min Rain = 0
KCL1 101947Z 19010KT 28/11 A3024 RMK A01 T02770112  RH  036%=      5-min Rain = 0
KCL1 101948Z 18004KT 28/11 A3024 RMK A01 T02770111  RH  036%=      5-min Rain = 0
KCL1 101949Z 17005KT 28/11 A3024 RMK A01 T02750114  RH  037%=      5-min Rain = 0
KCL1 101950Z 19007KT 28/11 A3024 RMK A01 T02750113  RH  036%=      5-min Rain = 0
KCL1 101951Z 15006KT 28/12 A3024 RMK A01 T02760116  RH  037%=      5-min Rain = 0
KCL1 101952Z 17007KT 28/12 A3024 RMK A01 T02770119  RH  037%=      5-min Rain = 0
KCL1 101953Z 19005KT 28/11 A3024 RMK A01 T02780113  RH  036%=      5-min Rain = 0
KCL1 101954Z 18004KT 28/11 A3024 RMK A01 T02750114  RH  036%=      5-min Rain = 0
KCL1 101955Z 17006KT 28/12 A3024 RMK A01 T02750116  RH  037%=      5-min Rain = 0
KCL1 101956Z 15005KT 28/11 A3024 RMK A01 T02760114  RH  036%=      5-min Rain = 0
KCL1 101957Z 15007KT 28/12 A3024 RMK A01 T02750119  RH  038%=      5-min Rain = 0
KCL1 101958Z 15004KT 28/12 A3024 RMK A01 T02760115  RH  037%=      5-min Rain = 0
KCL1 101959Z 19006KT 28/12 A3024 RMK A01 T02760115  RH  037%=      5-min Rain = 0
KCL1 102000Z 15010KT 28/11 A3024 RMK A01 T02760114  RH  036%=      5-min Rain = 0
KCL1 102001Z 15010KT 28/11 A3024 RMK A01 T02760113  RH  036%=      5-min Rain = 0
KCL1 102002Z 14009KT 27/11 A3024 RMK A01 T02740111  RH  036%=      5-min Rain = 0
KCL1 102003Z 14010KT 27/11 A3024 RMK A01 T02720114  RH  037%=      5-min Rain = 0
KCL1 102004Z 14010KT 27/11 A3024 RMK A01 T02730113  RH  037%=      5-min Rain = 0
KCL1 102005Z 15007KT 27/11 A3024 RMK A01 T02730112  RH  037%=      5-min Rain = 0
KCL1 102006Z 16009KT 27/12 A3024 RMK A01 T02730115  RH  037%=      5-min Rain = 0
KCL1 102007Z 18007KT 27/11 A3024 RMK A01 T02740110  RH  036%=      5-min Rain = 0
KCL1 102008Z 22007G12KT 27/11 A3024 RMK A01 T02720109  RH  036%=      5-min Rain = 0
KCL1 102009Z 22004KT 27/11 A3024 RMK A01 T02710107  RH  036%=      5-min Rain = 0
KCL1 102010Z 19004KT 27/11 A3023 RMK A01 T02710111  RH  037%=      5-min Rain = 0
KCL1 102011Z 19005KT 28/12 A3023 RMK A01 T02750115  RH  037%=      5-min Rain = 0
KCL1 102012Z 16008KT 28/12 A3023 RMK A01 T02790116  RH  036%=      5-min Rain = 0
KCL1 102013Z 18006KT 28/12 A3023 RMK A01 T02800116  RH  036%=      5-min Rain = 0
KCL1 102014Z 18007KT 28/12 A3023 RMK A01 T02800117  RH  036%=      5-min Rain = 0
KCL1 102015Z 18009KT 28/12 A3023 RMK A01 T02800116  RH  036%=      5-min Rain = 0
KCL1 102016Z 16009G14KT 28/12 A3023 RMK A01 T02800116  RH  036%=      5-min Rain = 0
KCL1 102017Z 15010KT 28/11 A3023 RMK A01 T02790113  RH  036%=      5-min Rain = 0
KCL1 102018Z 15002KT 28/11 A3023 RMK A01 T02760110  RH  035%=      5-min Rain = 0
KCL1 102019Z 16009KT 27/11 A3023 RMK A01 T02740113  RH  037%=      5-min Rain = 0
KCL1 102020Z 16009KT 27/12 A3023 RMK A01 T02730115  RH  037%=      5-min Rain = 0
KCL1 102021Z 17008KT 27/11 A3023 RMK A01 T02730113  RH  037%=      5-min Rain = 0
KCL1 102022Z 16009KT 27/12 A3023 RMK A01 T02720117  RH  038%=      5-min Rain = 0
KCL1 102023Z 16009KT 27/12 A3023 RMK A01 T02740119  RH  038%=      5-min Rain = 0
KCL1 102024Z 14011KT 28/12 A3023 RMK A01 T02760118  RH  037%=      5-min Rain = 0
KCL1 102025Z 13008KT 28/12 A3023 RMK A01 T02770116  RH  037%=      5-min Rain = 0
KCL1 102026Z 15005KT 28/12 A3023 RMK A01 T02750115  RH  037%=      5-min Rain = 0
KCL1 102027Z 16004KT 27/12 A3023 RMK A01 T02740115  RH  037%=      5-min Rain = 0
KCL1 102028Z 17007KT 27/12 A3023 RMK A01 T02730118  RH  038%=      5-min Rain = 0
KCL1 102029Z 17005KT 27/12 A3023 RMK A01 T02740116  RH  037%=      5-min Rain = 0
KCL1 102030Z 13005KT 28/12 A3023 RMK A01 T02750121  RH  038%=      5-min Rain = 0
KCL1 102031Z 13007KT 28/12 A3023 RMK A01 T02770122  RH  038%=      5-min Rain = 0
KCL1 102032Z 13009KT 28/12 A3023 RMK A01 T02780120  RH  037%=      5-min Rain = 0
KCL1 102033Z 14009KT 28/12 A3023 RMK A01 T02780121  RH  038%=      5-min Rain = 0
KCL1 102034Z 15009KT 28/12 A3023 RMK A01 T02780120  RH  038%=      5-min Rain = 0
KCL1 102035Z 16008KT 28/12 A3023 RMK A01 T02780115  RH  036%=      5-min Rain = 0
KCL1 102036Z 15008KT 28/12 A3023 RMK A01 T02770116  RH  037%=      5-min Rain = 0
KCL1 102037Z 18009KT 28/12 A3023 RMK A01 T02770115  RH  037%=      5-min Rain = 0
KCL1 102038Z 17006KT 28/11 A3023 RMK A01 T02770114  RH  036%=      5-min Rain = 0
KCL1 102039Z 21006KT 28/11 A3022 RMK A01 T02770111  RH  036%=      5-min Rain = 0
KCL1 102040Z 19005KT 28/11 A3022 RMK A01 T02770109  RH  035%=      5-min Rain = 0
KCL1 102041Z 17008KT 28/12 A3022 RMK A01 T02760115  RH  037%=      5-min Rain = 0
KCL1 102042Z 19009KT 28/11 A3022 RMK A01 T02770113  RH  036%=      5-min Rain = 0
KCL1 102043Z 18008KT 28/11 A3022 RMK A01 T02770114  RH  036%=      5-min Rain = 0
KCL1 102044Z 16007KT 28/11 A3022 RMK A01 T02780114  RH  036%=      5-min Rain = 0
KCL1 102045Z 16009KT 28/12 A3022 RMK A01 T02790121  RH  038%=      5-min Rain = 0
KCL1 102046Z 17013KT 28/12 A3022 RMK A01 T02820120  RH  037%=      5-min Rain = 0
KCL1 102047Z 17013KT 28/11 A3022 RMK A01 T02810114  RH  035%=      5-min Rain = 0
KCL1 102048Z 16011KT 28/12 A3022 RMK A01 T02760116  RH  037%=      5-min Rain = 0
KCL1 102049Z 17009KT 28/11 A3022 RMK A01 T02760113  RH  036%=      5-min Rain = 0
KCL1 102050Z 17008KT 28/11 A3022 RMK A01 T02750114  RH  037%=      5-min Rain = 0
KCL1 102051Z 13007KT 28/12 A3022 RMK A01 T02760116  RH  037%=      5-min Rain = 0
KCL1 102052Z 09003KT 28/12 A3022 RMK A01 T02770115  RH  037%=      5-min Rain = 0
KCL1 102053Z 10000KT 28/12 A3022 RMK A01 T02760116  RH  037%=      5-min Rain = 0
KCL1 102054Z 15004KT 28/11 A3022 RMK A01 T02760114  RH  036%=      5-min Rain = 0
KCL1 102055Z 13006KT 28/11 A3022 RMK A01 T02770114  RH  036%=      5-min Rain = 0
KCL1 102056Z 14007KT 28/12 A3022 RMK A01 T02770117  RH  037%=      5-min Rain = 0
KCL1 102057Z 13010KT 28/12 A3022 RMK A01 T02780118  RH  037%=      5-min Rain = 0
KCL1 102058Z 12010KT 28/12 A3022 RMK A01 T02790117  RH  037%=      5-min Rain = 0
KCL1 102059Z 13009KT 28/12 A3022 RMK A01 T02800119  RH  037%=      5-min Rain = 0
KCL1 102100Z 12008KT 28/12 A3022 RMK A01 T02800120  RH  037%=      5-min Rain = 0
KCL1 102101Z 13009KT 28/12 A3022 RMK A01 T02810122  RH  037%=      5-min Rain = 0
KCL1 102102Z 14011KT 28/12 A3022 RMK A01 T02820118  RH  036%=      5-min Rain = 0
KCL1 102103Z 14009KT 28/12 A3022 RMK A01 T02810119  RH  036%=      5-min Rain = 0
KCL1 102104Z 14008KT 28/12 A3022 RMK A01 T02800121  RH  037%=      5-min Rain = 0
KCL1 102105Z 15006KT 28/12 A3022 RMK A01 T02810118  RH  036%=      5-min Rain = 0
KCL1 102106Z 16010KT 28/12 A3022 RMK A01 T02810117  RH  036%=      5-min Rain = 0
KCL1 102107Z 16008KT 28/12 A3022 RMK A01 T02800118  RH  037%=      5-min Rain = 0
KCL1 102108Z 15007KT 28/12 A3022 RMK A01 T02800118  RH  037%=      5-min Rain = 0
KCL1 102109Z 14009KT 28/12 A3022 RMK A01 T02800120  RH  037%=      5-min Rain = 0
KCL1 102110Z 15007KT 28/12 A3022 RMK A01 T02810121  RH  037%=      5-min Rain = 0
KCL1 102111Z 14008KT 28/12 A3022 RMK A01 T02820118  RH  036%=      5-min Rain = 0
KCL1 102112Z 16006KT 28/12 A3022 RMK A01 T02810117  RH  036%=      5-min Rain = 0
KCL1 102113Z 15006KT 28/12 A3021 RMK A01 T02790119  RH  037%=      5-min Rain = 0
KCL1 102114Z 13006KT 28/12 A3021 RMK A01 T02790117  RH  037%=      5-min Rain = 0
KCL1 102115Z 16006KT 28/12 A3021 RMK A01 T02790118  RH  037%=      5-min Rain = 0
KCL1 102116Z 13006KT 28/12 A3021 RMK A01 T02780116  RH  036%=      5-min Rain = 0
KCL1 102117Z 11008KT 28/12 A3021 RMK A01 T02780118  RH  037%=      5-min Rain = 0
KCL1 102118Z 12010KT 28/12 A3021 RMK A01 T02780118  RH  037%=      5-min Rain = 0
KCL1 102119Z 13008KT 28/12 A3021 RMK A01 T02780115  RH  036%=      5-min Rain = 0
KCL1 102120Z 12008KT 28/12 A3021 RMK A01 T02780117  RH  037%=      5-min Rain = 0
KCL1 102121Z 14006KT 28/11 A3021 RMK A01 T02780114  RH  036%=      5-min Rain = 0
KCL1 102122Z 11008KT 28/12 A3021 RMK A01 T02780119  RH  037%=      5-min Rain = 0
KCL1 102123Z 12010KT 28/12 A3021 RMK A01 T02790118  RH  037%=      5-min Rain = 0
KCL1 102124Z 14008KT 28/12 A3021 RMK A01 T02790115  RH  036%=      5-min Rain = 0
KCL1 102125Z 17006G11KT 28/12 A3021 RMK A01 T02770117  RH  037%=      5-min Rain = 0
KCL1 102126Z 17010KT 28/12 A3021 RMK A01 T02790118  RH  037%=      5-min Rain = 0
KCL1 102127Z 17008KT 28/12 A3021 RMK A01 T02810118  RH  036%=      5-min Rain = 0
KCL1 102128Z 17010KT 28/11 A3021 RMK A01 T02810114  RH  035%=      5-min Rain = 0
KCL1 102129Z 16007KT 28/12 A3021 RMK A01 T02810118  RH  036%=      5-min Rain = 0
KCL1 102130Z 16008KT 28/12 A3021 RMK A01 T02820116  RH  036%=      5-min Rain = 0
KCL1 102131Z 17007KT 28/12 A3021 RMK A01 T02810116  RH  036%=      5-min Rain = 0
KCL1 102132Z 17009KT 28/11 A3021 RMK A01 T02810113  RH  035%=      5-min Rain = 0
KCL1 102133Z 17005KT 28/11 A3021 RMK A01 T02790108  RH  034%=      5-min Rain = 0
KCL1 102134Z 16006KT 28/11 A3021 RMK A01 T02770112  RH  036%=      5-min Rain = 0
KCL1 102135Z 16005KT 28/11 A3021 RMK A01 T02770111  RH  035%=      5-min Rain = 0
KCL1 102136Z 14008KT 28/12 A3021 RMK A01 T02790115  RH  036%=      5-min Rain = 0
KCL1 102137Z 16010KT 28/11 A3021 RMK A01 T02790113  RH  036%=      5-min Rain = 0
KCL1 102138Z 16005KT 28/12 A3021 RMK A01 T02800115  RH  036%=      5-min Rain = 0
KCL1 102139Z 13006KT 28/12 A3021 RMK A01 T02800116  RH  036%=      5-min Rain = 0
KCL1 102140Z 14009KT 28/11 A3021 RMK A01 T02800111  RH  035%=      5-min Rain = 0
KCL1 102141Z 13010KT 28/11 A3021 RMK A01 T02790114  RH  036%=      5-min Rain = 0
KCL1 102142Z 12008KT 28/12 A3021 RMK A01 T02770115  RH  036%=      5-min Rain = 0
KCL1 102143Z 12008KT 28/12 A3021 RMK A01 T02770116  RH  037%=      5-min Rain = 0
KCL1 102144Z 11008KT 28/12 A3021 RMK A01 T02780117  RH  037%=      5-min Rain = 0
KCL1 102145Z 12008KT 28/11 A3021 RMK A01 T02780114  RH  036%=      5-min Rain = 0
KCL1 102146Z 11006KT 28/11 A3021 RMK A01 T02770112  RH  036%=      5-min Rain = 0
KCL1 102147Z 12009KT 28/12 A3021 RMK A01 T02760116  RH  037%=      5-min Rain = 0
KCL1 102148Z 12008KT 28/11 A3021 RMK A01 T02760113  RH  036%=      5-min Rain = 0
KCL1 102149Z 13009KT 28/11 A3021 RMK A01 T02760113  RH  036%=      5-min Rain = 0
KCL1 102150Z 14009KT 28/11 A3021 RMK A01 T02760113  RH  036%=      5-min Rain = 0
KCL1 102151Z 14011KT 28/11 A3021 RMK A01 T02770114  RH  036%=      5-min Rain = 0
KCL1 102152Z 14010KT 28/11 A3021 RMK A01 T02770112  RH  036%=      5-min Rain = 0
KCL1 102153Z 14008KT 28/11 A3021 RMK A01 T02770113  RH  036%=      5-min Rain = 0
KCL1 102154Z 15009KT 28/11 A3021 RMK A01 T02770113  RH  036%=      5-min Rain = 0
KCL1 102155Z 15009KT 28/11 A3021 RMK A01 T02770113  RH  036%=      5-min Rain = 0
KCL1 102156Z 17006KT 28/11 A3021 RMK A01 T02780114  RH  036%=      5-min Rain = 0
KCL1 102157Z 16007KT 28/11 A3021 RMK A01 T02790112  RH  036%=      5-min Rain = 0
KCL1 102158Z 14005KT 28/12 A3021 RMK A01 T02790116  RH  036%=      5-min Rain = 0
KCL1 102159Z 15005KT 28/12 A3021 RMK A01 T02810118  RH  036%=      5-min Rain = 0
KCL1 102200Z 17006KT 28/11 A3021 RMK A01 T02820114  RH  035%=      5-min Rain = 0
KCL1 102201Z 12008KT 28/12 A3021 RMK A01 T02820117  RH  036%=      5-min Rain = 0
KCL1 102202Z 11008KT 28/11 A3021 RMK A01 T02820114  RH  035%=      5-min Rain = 0
KCL1 102203Z 13006KT 28/12 A3021 RMK A01 T02800117  RH  036%=      5-min Rain = 0
KCL1 102204Z 13006KT 28/12 A3021 RMK A01 T02800117  RH  036%=      5-min Rain = 0
KCL1 102205Z 11005KT 28/12 A3021 RMK A01 T02800116  RH  036%=      5-min Rain = 0
KCL1 102206Z 10003KT 28/12 A3021 RMK A01 T02800116  RH  036%=      5-min Rain = 0
KCL1 102207Z 14006KT 28/12 A3021 RMK A01 T02800118  RH  036%=      5-min Rain = 0
KCL1 102208Z 16010KT 28/11 A3021 RMK A01 T02810112  RH  035%=      5-min Rain = 0
KCL1 102209Z 16009KT 28/11 A302 RMK A01 T02800112  RH  035%=      5-min Rain = 0
KCL1 102210Z 17008KT 28/11 A3021 RMK A01 T02800111  RH  035%=      5-min Rain = 0
KCL1 102211Z 17006KT 28/11 A3021 RMK A01 T02800109  RH  035%=      5-min Rain = 0
KCL1 102212Z 18005KT 28/11 A3021 RMK A01 T02800109  RH  035%=      5-min Rain = 0
KCL1 102213Z 18004KT 28/11 A3021 RMK A01 T02800112  RH  035%=      5-min Rain = 0
KCL1 102214Z 17009KT 28/11 A3021 RMK A01 T02820109  RH  034%=      5-min Rain = 0
KCL1 102215Z 16007G12KT 28/11 A3021 RMK A01 T02830111  RH  034%=      5-min Rain = 0
KCL1 102216Z 16009KT 28/11 A3021 RMK A01 T02830114  RH  035%=      5-min Rain = 0
KCL1 102217Z 15007KT 28/11 A3021 RMK A01 T02820114  RH  035%=      5-min Rain = 0
KCL1 102218Z 12009KT 28/11 A3021 RMK A01 T02820114  RH  035%=      5-min Rain = 0
KCL1 102219Z 12009KT 28/11 A3021 RMK A01 T02810113  RH  035%=      5-min Rain = 0
KCL1 102220Z 13008KT 28/11 A3021 RMK A01 T02800110  RH  035%=      5-min Rain = 0
KCL1 102221Z 14006KT 28/11 A3021 RMK A01 T02780108  RH  035%=      5-min Rain = 0
KCL1 102222Z 11006KT 28/11 A3021 RMK A01 T02770109  RH  035%=      5-min Rain = 0
KCL1 102223Z 15010KT 28/11 A3021 RMK A01 T02770111  RH  036%=      5-min Rain = 0
KCL1 102224Z 16008KT 28/11 A3021 RMK A01 T02770112  RH  036%=      5-min Rain = 0
KCL1 102225Z 15007KT 28/11 A3021 RMK A01 T02790113  RH  036%=      5-min Rain = 0
KCL1 102226Z 14009KT 28/11 A3021 RMK A01 T02790111  RH  035%=      5-min Rain = 0
KCL1 102227Z 15009KT 28/11 A3021 RMK A01 T02790108  RH  034%=      5-min Rain = 0
KCL1 102228Z 14009KT 28/11 A3021 RMK A01 T02770106  RH  034%=      5-min Rain = 0
KCL1 102229Z 14009KT 28/11 A3021 RMK A01 T02750106  RH  035%=      5-min Rain = 0
KCL1 102230Z 15009KT 27/11 A3021 RMK A01 T02740107  RH  035%=      5-min Rain = 0
KCL1 102231Z 15007KT 27/11 A3021 RMK A01 T02740106  RH  035%=      5-min Rain = 0
KCL1 102232Z 14004KT 27/10 A3021 RMK A01 T02740104  RH  035%=      5-min Rain = 0
KCL1 102233Z 11005KT 27/11 A3021 RMK A01 T02740106  RH  035%=      5-min Rain = 0
KCL1 102234Z 12006KT 27/11 A3021 RMK A01 T02740108  RH  035%=      5-min Rain = 0
KCL1 102235Z 12005KT 28/11 A3021 RMK A01 T02750111  RH  036%=      5-min Rain = 0
KCL1 102236Z 11008KT 28/11 A3021 RMK A01 T02760107  RH  035%=      5-min Rain = 0
KCL1 102237Z 11006G11KT 28/11 A3021 RMK A01 T02760108  RH  035%=      5-min Rain = 0
KCL1 102238Z 13010KT 28/11 A3021 RMK A01 T02750110  RH  036%=      5-min Rain = 0
KCL1 102239Z 12009KT 28/11 A3021 RMK A01 T02760107  RH  035%=      5-min Rain = 0
KCL1 102240Z 12008KT 28/11 A3021 RMK A01 T02760110  RH  036%=      5-min Rain = 0
KCL1 102241Z 17011KT 28/11 A3021 RMK A01 T02760110  RH  036%=      5-min Rain = 0
KCL1 102242Z 17010KT 28/11 A3021 RMK A01 T02760107  RH  035%=      5-min Rain = 0
KCL1 102243Z 17008KT 28/11 A3021 RMK A01 T02760107  RH  035%=      5-min Rain = 0
KCL1 102244Z 16009KT 28/11 A3021 RMK A01 T02760110  RH  035%=      5-min Rain = 0
KCL1 102245Z 15007KT 28/11 A3021 RMK A01 T02760109  RH  035%=      5-min Rain = 0
KCL1 102246Z 15006KT 28/11 A3021 RMK A01 T02760110  RH  036%=      5-min Rain = 0
KCL1 102247Z 19007KT 28/11 A3021 RMK A01 T02770109  RH  035%=      5-min Rain = 0
KCL1 102248Z 18007KT 28/11 A3021 RMK A01 T02770105  RH  034%=      5-min Rain = 0
KCL1 102249Z 18006KT 28/11 A3021 RMK A01 T02780106  RH  034%=      5-min Rain = 0
KCL1 102250Z 15008KT 28/11 A3021 RMK A01 T02780110  RH  035%=      5-min Rain = 0
KCL1 102251Z 15008KT 28/11 A3021 RMK A01 T02790108  RH  034%=      5-min Rain = 0
KCL1 102252Z 14008KT 28/11 A3021 RMK A01 T02780106  RH  034%=      5-min Rain = 0
KCL1 102253Z 16005KT 28/11 A3021 RMK A01 T02770105  RH  034%=      5-min Rain = 0
KCL1 102254Z 15007KT 28/11 A3021 RMK A01 T02770107  RH  035%=      5-min Rain = 0
KCL1 102255Z 14008KT 28/11 A3021 RMK A01 T02770105  RH  034%=      5-min Rain = 0
KCL1 102256Z 15010KT 28/10 A3021 RMK A01 T02760104  RH  034%=      5-min Rain = 0
KCL1 102257Z 14010KT 28/10 A3021 RMK A01 T02760103  RH  034%=      5-min Rain = 0
KCL1 102258Z 15007KT 28/10 A3021 RMK A01 T02760103  RH  034%=      5-min Rain = 0
KCL1 102259Z 16005KT 28/10 A3021 RMK A01 T02750103  RH  034%=      5-min Rain = 0
KCL1 102300Z 13005KT 28/11 A3021 RMK A01 T02750106  RH  035%=      5-min Rain = 0
KCL1 102301Z 14007KT 28/11 A3021 RMK A01 T02760106  RH  035%=      5-min Rain = 0
KCL1 102302Z 14007KT 28/10 A3021 RMK A01 T02760103  RH  034%=      5-min Rain = 0
KCL1 102303Z 13009KT 28/10 A3021 RMK A01 T02760103  RH  034%=      5-min Rain = 0
KCL1 102304Z 14010KT 28/10 A3021 RMK A01 T02760103  RH  034%=      5-min Rain = 0
KCL1 102305Z 16007KT 28/11 A3021 RMK A01 T02750105  RH  034%=      5-min Rain = 0
KCL1 102306Z 15007KT 28/11 A3021 RMK A01 T02750106  RH  035%=      5-min Rain = 0
KCL1 102307Z 15010KT 28/10 A3021 RMK A01 T02750102  RH  034%=      5-min Rain = 0
KCL1 102308Z 15010KT 28/10 A3021 RMK A01 T02750100  RH  033%=      5-min Rain = 0
KCL1 102309Z 13010KT 27/10 A3021 RMK A01 T02740100  RH  034%=      5-min Rain = 0
KCL1 102310Z 14011KT 27/10 A3021 RMK A01 T02730100  RH  034%=      5-min Rain = 0
KCL1 102311Z 14007KT 27/10 A3021 RMK A01 T02730099  RH  034%=      5-min Rain = 0
KCL1 102312Z 13006KT 27/10 A3021 RMK A01 T02720100  RH  034%=      5-min Rain = 0
KCL1 102313Z 14005KT 27/10 A3021 RMK A01 T02730101  RH  034%=      5-min Rain = 0
KCL1 102314Z 16010KT 27/11 A3021 RMK A01 T02730105  RH  035%=      5-min Rain = 0
KCL1 102315Z 17009KT 27/10 A3021 RMK A01 T02740102  RH  034%=      5-min Rain = 0
KCL1 102316Z 17008KT 27/10 A3021 RMK A01 T02740101  RH  034%=      5-min Rain = 0
KCL1 102317Z 13010KT 28/10 A3021 RMK A01 T02750102  RH  034%=      5-min Rain = 0
KCL1 102318Z 15007KT 28/10 A3021 RMK A01 T02750103  RH  034%=      5-min Rain = 0
KCL1 102319Z 15009KT 27/10 A3021 RMK A01 T02740102  RH  034%=      5-min Rain = 0
KCL1 102320Z 16008KT 27/10 A3021 RMK A01 T02730100  RH  034%=      5-min Rain = 0
KCL1 102321Z 15006KT 27/10 A3021 RMK A01 T02730103  RH  034%=      5-min Rain = 0
KCL1 102322Z 16005KT 27/10 A3021 RMK A01 T02730103  RH  034%=      5-min Rain = 0
KCL1 102323Z 16004KT 27/10 A3021 RMK A01 T02730103  RH  035%=      5-min Rain = 0
KCL1 102324Z 16006KT 27/10 A3021 RMK A01 T02730102  RH  034%=      5-min Rain = 0
KCL1 102325Z 16007KT 27/10 A3021 RMK A01 T02730104  RH  035%=      5-min Rain = 0
KCL1 102326Z 15007KT 27/10 A3021 RMK A01 T02730101  RH  034%=      5-min Rain = 0
KCL1 102327Z 15006KT 27/10 A3021 RMK A01 T02720101  RH  034%=      5-min Rain = 0
KCL1 102328Z 14006KT 27/10 A3021 RMK A01 T02720101  RH  034%=      5-min Rain = 0
KCL1 102329Z 16006KT 27/10 A3021 RMK A01 T02710103  RH  035%=      5-min Rain = 0
KCL1 102330Z 16007KT 27/10 A3021 RMK A01 T02710103  RH  035%=      5-min Rain = 0
KCL1 102331Z 17007KT 27/10 A3021 RMK A01 T02710103  RH  035%=      5-min Rain = 0
KCL1 102332Z 17009KT 27/11 A3021 RMK A01 T02710105  RH  035%=      5-min Rain = 0
KCL1 102333Z 14010KT 27/11 A3021 RMK A01 T02710106  RH  036%=      5-min Rain = 0
KCL1 102334Z 14010KT 27/11 A3021 RMK A01 T02710106  RH  036%=      5-min Rain = 0
KCL1 102335Z 15009KT 27/11 A3021 RMK A01 T02700107  RH  036%=      5-min Rain = 0
KCL1 102336Z 15009KT 27/11 A3021 RMK A01 T02690105  RH  036%=      5-min Rain = 0
KCL1 102337Z 14006KT 27/11 A3021 RMK A01 T02690105  RH  036%=      5-min Rain = 0
KCL1 102338Z 15007KT 27/11 A3021 RMK A01 T02680108  RH  037%=      5-min Rain = 0
KCL1 102339Z 14008G13KT 27/11 A3021 RMK A01 T02680111  RH  038%=      5-min Rain = 0
KCL1 102340Z 14011KT 27/11 A3021 RMK A01 T02680114  RH  038%=      5-min Rain = 0
KCL1 102341Z 13010KT 27/11 A3021 RMK A01 T02660114  RH  038%=      5-min Rain = 0
KCL1 102342Z 13010KT 27/12 A3021 RMK A01 T02650115  RH  039%=      5-min Rain = 0
KCL1 102343Z 13010KT 27/12 A3021 RMK A01 T02650116  RH  039%=      5-min Rain = 0
KCL1 102344Z 13010KT 26/12 A3021 RMK A01 T02640116  RH  040%=      5-min Rain = 0
KCL1 102345Z 12010KT 26/12 A3021 RMK A01 T02630116  RH  040%=      5-min Rain = 0
KCL1 102346Z 13010KT 26/12 A3021 RMK A01 T02630116  RH  040%=      5-min Rain = 0
KCL1 102347Z 13009KT 26/12 A3021 RMK A01 T02620116  RH  040%=      5-min Rain = 0
KCL1 102348Z 12009KT 26/12 A3021 RMK A01 T02620117  RH  040%=      5-min Rain = 0
KCL1 102349Z 11010KT 26/12 A3021 RMK A01 T02610118  RH  041%=      5-min Rain = 0
KCL1 102350Z 12009KT 26/12 A3021 RMK A01 T02610117  RH  041%=      5-min Rain = 0
KCL1 102351Z 12010KT 26/12 A3021 RMK A01 T02610118  RH  041%=      5-min Rain = 0
KCL1 102352Z 12010KT 26/12 A3021 RMK A01 T02590116  RH  041%=      5-min Rain = 0
KCL1 102353Z 12009KT 26/12 A3021 RMK A01 T02590117  RH  041%=      5-min Rain = 0
KCL1 102354Z 12011KT 26/12 A3021 RMK A01 T02590116  RH  041%=      5-min Rain = 0
KCL1 102355Z 13010KT 26/12 A3021 RMK A01 T02580115  RH  041%=      5-min Rain = 0
KCL1 102356Z 12009KT 26/12 A3021 RMK A01 T02580116  RH  041%=      5-min Rain = 0
KCL1 102357Z 13010KT 26/12 A3021 RMK A01 T02580116  RH  041%=      5-min Rain = 0
KCL1 102358Z 12008KT 26/12 A3021 RMK A01 T02570116  RH  041%=      5-min Rain = 0
KCL1 102359Z 12010KT 26/12 A3021 RMK A01 T02570117  RH  042%=      5-min Rain = 0
KCL1 110000Z 12011KT 26/12 A3021 RMK A01 T02560115  RH  041%=      5-min Rain = 0
KCL1 110001Z 13009KT 26/12 A3021 RMK A01 T02560115  RH  041%=      5-min Rain = 0
KCL1 110002Z 12010KT 26/12 A3021 RMK A01 T02550115  RH  042%=      5-min Rain = 0
KCL1 110003Z 12010KT 26/12 A3021 RMK A01 T02550115  RH  042%=      5-min Rain = 0
KCL1 110004Z 13008KT 25/12 A3021 RMK A01 T02540116  RH  042%=      5-min Rain = 0
KCL1 110005Z 13009KT 25/12 A3021 RMK A01 T02540116  RH  042%=      5-min Rain = 0
KCL1 110006Z 13009KT 25/12 A3021 RMK A01 T02530117  RH  042%=      5-min Rain = 0
KCL1 110007Z 13010KT 25/12 A3021 RMK A01 T02520115  RH  042%=      5-min Rain = 0
KCL1 110008Z 13010KT 25/11 A3021 RMK A01 T02520114  RH  042%=      5-min Rain = 0
KCL1 110009Z 13009KT 25/11 A3021 RMK A01 T02520114  RH  042%=      5-min Rain = 0
KCL1 110010Z 12008KT 25/12 A3021 RMK A01 T02510115  RH  042%=      5-min Rain = 0
KCL1 110011Z 12011KT 25/11 A3021 RMK A01 T02510114  RH  042%=      5-min Rain = 0
KCL1 110012Z 12009KT 25/11 A3021 RMK A01 T02500114  RH  042%=      5-min Rain = 0
KCL1 110013Z 12010KT 25/11 A3021 RMK A01 T02490114  RH  043%=      5-min Rain = 0
KCL1 110014Z 12009KT 25/11 A3021 RMK A01 T02490114  RH  043%=      5-min Rain = 0
KCL1 110015Z 12010KT 25/11 A3021 RMK A01 T02480114  RH  043%=      5-min Rain = 0
KCL1 110016Z 12011KT 25/11 A3021 RMK A01 T02480113  RH  043%=      5-min Rain = 0
KCL1 110017Z 13009KT 25/11 A3021 RMK A01 T02470112  RH  043%=      5-min Rain = 0
KCL1 110018Z 13008KT 25/11 A3021 RMK A01 T02470113  RH  043%=      5-min Rain = 0
KCL1 110019Z 13008KT 25/11 A3021 RMK A01 T02470113  RH  043%=      5-min Rain = 0
KCL1 110020Z 13008KT 25/11 A3021 RMK A01 T02460114  RH  043%=      5-min Rain = 0
KCL1 110021Z 13009KT 25/12 A3021 RMK A01 T02460115  RH  044%=      5-min Rain = 0
KCL1 110022Z 13007KT 25/11 A3021 RMK A01 T02450114  RH  044%=      5-min Rain = 0
KCL1 110023Z 13008KT 24/12 A3021 RMK A01 T02440115  RH  044%=      5-min Rain = 0
KCL1 110024Z 13009KT 24/11 A3021 RMK A01 T02430114  RH  044%=      5-min Rain = 0
KCL1 110025Z 13009KT 24/11 A3021 RMK A01 T02420113  RH  044%=      5-min Rain = 0
KCL1 110026Z 13011KT 24/11 A3021 RMK A01 T02420112  RH  044%=      5-min Rain = 0
KCL1 110027Z 13009KT 24/11 A3021 RMK A01 T02420112  RH  044%=      5-min Rain = 0
KCL1 110028Z 13009KT 24/11 A3021 RMK A01 T02410112  RH  044%=      5-min Rain = 0
KCL1 110029Z 13009KT 24/11 A3021 RMK A01 T02410112  RH  044%=      5-min Rain = 0
KCL1 110030Z 13009KT 24/11 A3021 RMK A01 T02400112  RH  044%=      5-min Rain = 0
KCL1 110031Z 12008KT 24/11 A3021 RMK A01 T02400112  RH  045%=      5-min Rain = 0
KCL1 110032Z 12010KT 24/11 A3021 RMK A01 T02390112  RH  045%=      5-min Rain = 0
KCL1 110033Z 13010KT 24/11 A3021 RMK A01 T02380111  RH  045%=      5-min Rain = 0
KCL1 110034Z 12009KT 24/11 A3021 RMK A01 T02380111  RH  045%=      5-min Rain = 0
KCL1 110035Z 12009KT 24/11 A3021 RMK A01 T02370111  RH  045%=      5-min Rain = 0
KCL1 110036Z 12009KT 24/11 A3021 RMK A01 T02370111  RH  045%=      5-min Rain = 0
KCL1 110037Z 12009KT 24/11 A3021 RMK A01 T02360110  RH  045%=      5-min Rain = 0
KCL1 110038Z 12009KT 24/11 A3021 RMK A01 T02350111  RH  045%=      5-min Rain = 0
KCL1 110039Z 12008KT 23/11 A3021 RMK A01 T02340111  RH  046%=      5-min Rain = 0
KCL1 110040Z 13008KT 23/11 A3021 RMK A01 T02340111  RH  046%=      5-min Rain = 0
KCL1 110041Z 12008KT 23/11 A3021 RMK A01 T02330111  RH  046%=      5-min Rain = 0
KCL1 110042Z 12008KT 23/11 A3021 RMK A01 T02320111  RH  046%=      5-min Rain = 0
KCL1 110043Z 12009KT 23/11 A3021 RMK A01 T02310111  RH  047%=      5-min Rain = 0
KCL1 110044Z 12008KT 23/11 A3021 RMK A01 T02300110  RH  047%=      5-min Rain = 0
KCL1 110045Z 12009KT 23/11 A3021 RMK A01 T02290110  RH  047%=      5-min Rain = 0
KCL1 110046Z 12008KT 23/11 A3021 RMK A01 T02290110  RH  047%=      5-min Rain = 0
KCL1 110047Z 11007KT 23/11 A3021 RMK A01 T02290110  RH  047%=      5-min Rain = 0
KCL1 110048Z 11007KT 23/11 A3021 RMK A01 T02280110  RH  047%=      5-min Rain = 0
KCL1 110049Z 11005KT 23/11 A3021 RMK A01 T02270111  RH  048%=      5-min Rain = 0
KCL1 110050Z 10005KT 23/11 A3021 RMK A01 T02260111  RH  048%=      5-min Rain = 0
KCL1 110051Z 10005KT 22/11 A3021 RMK A01 T02240111  RH  049%=      5-min Rain = 0
KCL1 110052Z 10006KT 22/11 A3021 RMK A01 T02220112  RH  050%=      5-min Rain = 0
KCL1 110053Z 11006KT 22/11 A3021 RMK A01 T02190112  RH  050%=      5-min Rain = 0
KCL1 110054Z 11007KT 22/11 A3021 RMK A01 T02170112  RH  051%=      5-min Rain = 0
KCL1 110055Z 11007KT 22/11 A3021 RMK A01 T02160112  RH  052%=      5-min Rain = 0
KCL1 110056Z 11006KT 22/11 A3021 RMK A01 T02150112  RH  052%=      5-min Rain = 0
KCL1 110057Z 11006KT 21/11 A3021 RMK A01 T02140113  RH  052%=      5-min Rain = 0
KCL1 110058Z 11006KT 21/11 A3021 RMK A01 T02130113  RH  053%=      5-min Rain = 0
KCL1 110059Z 11006KT 21/11 A3021 RMK A01 T02120113  RH  053%=      5-min Rain = 0
KCL1 110100Z 10006KT 21/11 A3021 RMK A01 T02100112  RH  054%=      5-min Rain = 0
KCL1 110101Z 10006KT 21/11 A3021 RMK A01 T02090112  RH  054%=      5-min Rain = 0
KCL1 110102Z 10007KT 21/11 A3021 RMK A01 T02080112  RH  054%=      5-min Rain = 0
KCL1 110103Z 10007KT 21/11 A3021 RMK A01 T02070112  RH  054%=      5-min Rain = 0
KCL1 110104Z 10007KT 21/11 A3021 RMK A01 T02060112  RH  055%=      5-min Rain = 0
KCL1 110105Z 11006KT 21/11 A3021 RMK A01 T02050112  RH  055%=      5-min Rain = 0
KCL1 110106Z 11007KT 20/11 A3021 RMK A01 T02040111  RH  055%=      5-min Rain = 0
KCL1 110107Z 11007KT 20/11 A3021 RMK A01 T02040111  RH  055%=      5-min Rain = 0
KCL1 110108Z 11007KT 20/11 A3021 RMK A01 T02040111  RH  055%=      5-min Rain = 0
KCL1 110109Z 11006KT 20/11 A3021 RMK A01 T02040111  RH  055%=      5-min Rain = 0
KCL1 110110Z 11007KT 20/11 A3021 RMK A01 T02030111  RH  055%=      5-min Rain = 0
KCL1 110111Z 11006KT 20/11 A3021 RMK A01 T02020111  RH  056%=      5-min Rain = 0
KCL1 110112Z 11006KT 20/11 A3021 RMK A01 T02020111  RH  056%=      5-min Rain = 0
KCL1 110113Z 11006KT 20/11 A3021 RMK A01 T02010111  RH  056%=      5-min Rain = 0
KCL1 110114Z 11006KT 20/11 A3022 RMK A01 T02000111  RH  056%=      5-min Rain = 0
KCL1 110115Z 11007KT 20/11 A3022 RMK A01 T01990111  RH  057%=      5-min Rain = 0
KCL1 110116Z 11007KT 20/11 A3021 RMK A01 T01990110  RH  057%=      5-min Rain = 0
KCL1 110117Z 11007KT 20/11 A3021 RMK A01 T01980110  RH  057%=      5-min Rain = 0
KCL1 110118Z 11007KT 20/11 A3021 RMK A01 T01980110  RH  057%=      5-min Rain = 0
KCL1 110119Z 11007KT 20/11 A3021 RMK A01 T01970109  RH  057%=      5-min Rain = 0
KCL1 110120Z 11007KT 20/11 A3021 RMK A01 T01970109  RH  057%=      5-min Rain = 0
KCL1 110121Z 11007KT 20/11 A3021 RMK A01 T01960109  RH  057%=      5-min Rain = 0
KCL1 110122Z 11006KT 20/11 A3021 RMK A01 T01960109  RH  057%=      5-min Rain = 0
KCL1 110123Z 11006KT 20/11 A3021 RMK A01 T01950109  RH  057%=      5-min Rain = 0
KCL1 110124Z 11007KT 19/11 A3021 RMK A01 T01940108  RH  057%=      5-min Rain = 0
KCL1 110125Z 11007KT 19/11 A3021 RMK A01 T01940108  RH  057%=      5-min Rain = 0
KCL1 110126Z 11007KT 19/11 A3021 RMK A01 T01940108  RH  057%=      5-min Rain = 0
KCL1 110127Z 12006KT 20/11 A3021 RMK A01 T01950108  RH  057%=      5-min Rain = 0
KCL1 110128Z 11006KT 20/11 A3021 RMK A01 T01950107  RH  057%=      5-min Rain = 0
KCL1 110129Z 11006KT 20/11 A3021 RMK A01 T01950108  RH  057%=      5-min Rain = 0
KCL1 110130Z 12006KT 19/11 A3021 RMK A01 T01940107  RH  057%=      5-min Rain = 0
KCL1 110131Z 12005KT 19/11 A3021 RMK A01 T01930107  RH  057%=      5-min Rain = 0
KCL1 110132Z 12005KT 19/11 A3022 RMK A01 T01930108  RH  058%=      5-min Rain = 0
KCL1 110133Z 11006KT 19/11 A3022 RMK A01 T01920107  RH  058%=      5-min Rain = 0
KCL1 110134Z 11006KT 19/11 A3022 RMK A01 T01910107  RH  058%=      5-min Rain = 0
KCL1 110135Z 11006KT 19/11 A3022 RMK A01 T01910107  RH  058%=      5-min Rain = 0
KCL1 110136Z 11006KT 19/11 A3022 RMK A01 T01910107  RH  058%=      5-min Rain = 0
KCL1 110137Z 11006KT 19/11 A3022 RMK A01 T01910106  RH  058%=      5-min Rain = 0
KCL1 110138Z 12006KT 19/11 A3022 RMK A01 T01910106  RH  058%=      5-min Rain = 0
KCL1 110139Z 11006KT 19/11 A3022 RMK A01 T01910107  RH  058%=      5-min Rain = 0
KCL1 110140Z 11005KT 19/11 A3022 RMK A01 T01900106  RH  058%=      5-min Rain = 0
KCL1 110141Z 11005KT 19/11 A3022 RMK A01 T01890106  RH  058%=      5-min Rain = 0
KCL1 110142Z 11005KT 19/11 A3022 RMK A01 T01890106  RH  059%=      5-min Rain = 0
KCL1 110143Z 11006KT 19/11 A3022 RMK A01 T01890106  RH  059%=      5-min Rain = 0
KCL1 110144Z 11006KT 19/11 A3022 RMK A01 T01890106  RH  059%=      5-min Rain = 0
KCL1 110145Z 12006KT 19/11 A3022 RMK A01 T01880106  RH  059%=      5-min Rain = 0
KCL1 110146Z 12005KT 19/11 A3022 RMK A01 T01870106  RH  059%=      5-min Rain = 0
KCL1 110147Z 12006KT 19/11 A3022 RMK A01 T01870106  RH  059%=      5-min Rain = 0
KCL1 110148Z 12006KT 19/11 A3022 RMK A01 T01860105  RH  059%=      5-min Rain = 0
KCL1 110149Z 12006KT 19/11 A3022 RMK A01 T01860105  RH  059%=      5-min Rain = 0
KCL1 110150Z 12005KT 19/11 A3022 RMK A01 T01860105  RH  059%=      5-min Rain = 0
KCL1 110151Z 12006KT 19/11 A3022 RMK A01 T01860105  RH  059%=      5-min Rain = 0
KCL1 110152Z 12005KT 19/11 A3022 RMK A01 T01860105  RH  059%=      5-min Rain = 0
KCL1 110153Z 12005KT 19/11 A3022 RMK A01 T01860105  RH  059%=      5-min Rain = 0
KCL1 110154Z 12006KT 19/10 A3022 RMK A01 T01860104  RH  059%=      5-min Rain = 0
KCL1 110155Z 12006KT 19/10 A3022 RMK A01 T01860104  RH  059%=      5-min Rain = 0
KCL1 110156Z 12006KT 19/10 A3022 RMK A01 T01860104  RH  059%=      5-min Rain = 0
KCL1 110157Z 11005KT 19/10 A3022 RMK A01 T01860104  RH  059%=      5-min Rain = 0
KCL1 110158Z 12005KT 19/10 A3022 RMK A01 T01860104  RH  059%=      5-min Rain = 0
KCL1 110159Z 12006KT 19/10 A3022 RMK A01 T01860104  RH  059%=      5-min Rain = 0
KCL1 110200Z 12006KT 19/10 A3022 RMK A01 T01860104  RH  059%=      5-min Rain = 0
KCL1 110201Z 11006KT 19/10 A3022 RMK A01 T01860104  RH  059%=      5-min Rain = 0
KCL1 110202Z 12006KT 19/10 A3022 RMK A01 T01860104  RH  059%=      5-min Rain = 0
KCL1 110203Z 11006KT 19/10 A3022 RMK A01 T01850103  RH  059%=      5-min Rain = 0
KCL1 110204Z 11006KT 19/10 A3022 RMK A01 T01850103  RH  059%=      5-min Rain = 0
KCL1 110205Z 11006KT 19/10 A3022 RMK A01 T01850103  RH  059%=      5-min Rain = 0
KCL1 110206Z 11006KT 19/10 A3022 RMK A01 T01850103  RH  059%=      5-min Rain = 0
KCL1 110207Z 11006KT 18/10 A3022 RMK A01 T01840103  RH  059%=      5-min Rain = 0
KCL1 110208Z 11007KT 18/10 A3023 RMK A01 T01830103  RH  059%=      5-min Rain = 0
KCL1 110209Z 11007KT 18/10 A3023 RMK A01 T01830103  RH  060%=      5-min Rain = 0
KCL1 110210Z 11007KT 18/10 A3023 RMK A01 T01820102  RH  060%=      5-min Rain = 0
KCL1 110211Z 11007KT 18/10 A3023 RMK A01 T01810102  RH  060%=      5-min Rain = 0
KCL1 110212Z 11007KT 18/10 A3023 RMK A01 T01810102  RH  060%=      5-min Rain = 0
KCL1 110213Z 12007KT 18/10 A3023 RMK A01 T01800102  RH  060%=      5-min Rain = 0
KCL1 110214Z 11007KT 18/10 A3023 RMK A01 T01800102  RH  060%=      5-min Rain = 0
KCL1 110215Z 12007KT 18/10 A3023 RMK A01 T01800102  RH  060%=      5-min Rain = 0
KCL1 110216Z 11007KT 18/10 A3023 RMK A01 T01800102  RH  060%=      5-min Rain = 0
KCL1 110217Z 11007KT 18/10 A3023 RMK A01 T01790102  RH  061%=      5-min Rain = 0
KCL1 110218Z 11006KT 18/10 A3023 RMK A01 T01790102  RH  061%=      5-min Rain = 0
KCL1 110219Z 11007KT 18/10 A3023 RMK A01 T01780102  RH  061%=      5-min Rain = 0
KCL1 110220Z 11007KT 18/10 A3023 RMK A01 T01770102  RH  061%=      5-min Rain = 0
KCL1 110221Z 12007KT 18/10 A3023 RMK A01 T01760102  RH  062%=      5-min Rain = 0
KCL1 110222Z 12007KT 18/10 A3023 RMK A01 T01760102  RH  062%=      5-min Rain = 0
KCL1 110223Z 11006KT 18/10 A3023 RMK A01 T01760102  RH  062%=      5-min Rain = 0
KCL1 110224Z 12007KT 18/10 A3023 RMK A01 T01750102  RH  062%=      5-min Rain = 0
KCL1 110225Z 12007KT 18/10 A3023 RMK A01 T01750102  RH  062%=      5-min Rain = 0
KCL1 110226Z 12007KT 18/10 A3023 RMK A01 T01750102  RH  062%=      5-min Rain = 0
KCL1 110227Z 13007KT 18/10 A3023 RMK A01 T01750102  RH  062%=      5-min Rain = 0
KCL1 110228Z 12007KT 18/10 A3023 RMK A01 T01750102  RH  062%=      5-min Rain = 0
KCL1 110229Z 13006KT 18/10 A3023 RMK A01 T01750102  RH  062%=      5-min Rain = 0
KCL1 110230Z 13007KT 18/10 A3023 RMK A01 T01750102  RH  062%=      5-min Rain = 0
KCL1 110231Z 13007KT 18/10 A3023 RMK A01 T01750102  RH  062%=      5-min Rain = 0
KCL1 110232Z 13006KT 18/10 A3023 RMK A01 T01760102  RH  062%=      5-min Rain = 0
KCL1 110233Z 13006KT 18/10 A3023 RMK A01 T01750102  RH  062%=      5-min Rain = 0
KCL1 110234Z 13007KT 18/10 A3024 RMK A01 T01750102  RH  062%=      5-min Rain = 0
KCL1 110235Z 14007KT 18/10 A3024 RMK A01 T01750102  RH  062%=      5-min Rain = 0
KCL1 110236Z 13007KT 18/10 A3024 RMK A01 T01750102  RH  062%=      5-min Rain = 0
KCL1 110237Z 13007KT 18/10 A3024 RMK A01 T01750102  RH  062%=      5-min Rain = 0
KCL1 110238Z 13008KT 18/10 A3024 RMK A01 T01760102  RH  062%=      5-min Rain = 0
KCL1 110239Z 13007KT 18/10 A3024 RMK A01 T01760103  RH  062%=      5-min Rain = 0
KCL1 110240Z 13008KT 18/10 A3024 RMK A01 T01760103  RH  062%=      5-min Rain = 0
KCL1 110241Z 13007KT 18/10 A3024 RMK A01 T01770104  RH  062%=      5-min Rain = 0
KCL1 110242Z 14007KT 18/10 A3024 RMK A01 T01780104  RH  062%=      5-min Rain = 0
KCL1 110243Z 14007KT 18/10 A3024 RMK A01 T01780104  RH  062%=      5-min Rain = 0
KCL1 110244Z 14008KT 18/10 A3024 RMK A01 T01780104  RH  062%=      5-min Rain = 0
KCL1 110245Z 14008KT 18/11 A3024 RMK A01 T01790105  RH  062%=      5-min Rain = 0
KCL1 110246Z 14008KT 18/11 A3024 RMK A01 T01800105  RH  062%=      5-min Rain = 0
KCL1 110247Z 14008KT 18/11 A3024 RMK A01 T01810106  RH  061%=      5-min Rain = 0
KCL1 110248Z 14007KT 18/11 A3024 RMK A01 T01810106  RH  061%=      5-min Rain = 0
KCL1 110249Z 14007KT 18/11 A3024 RMK A01 T01830106  RH  061%=      5-min Rain = 0
KCL1 110250Z 14008KT 18/11 A3024 RMK A01 T01840106  RH  061%=      5-min Rain = 0
KCL1 110251Z 14007KT 19/11 A3024 RMK A01 T01850106  RH  060%=      5-min Rain = 0
KCL1 110252Z 14007KT 19/11 A3024 RMK A01 T01850107  RH  060%=      5-min Rain = 0
KCL1 110253Z 14007KT 19/11 A3024 RMK A01 T01860106  RH  060%=      5-min Rain = 0
KCL1 110254Z 14007KT 19/11 A3024 RMK A01 T01860106  RH  060%=      5-min Rain = 0
KCL1 110255Z 14008KT 19/11 A3024 RMK A01 T01870107  RH  060%=      5-min Rain = 0
KCL1 110256Z 14007KT 19/11 A3024 RMK A01 T01870106  RH  059%=      5-min Rain = 0
KCL1 110257Z 14007KT 19/11 A3024 RMK A01 T01880106  RH  059%=      5-min Rain = 0
KCL1 110258Z 14008KT 19/11 A3024 RMK A01 T01880107  RH  059%=      5-min Rain = 0
KCL1 110259Z 14007KT 19/11 A3024 RMK A01 T01890107  RH  059%=      5-min Rain = 0
KCL1 110300Z 14007KT 19/11 A3024 RMK A01 T01890107  RH  059%=      5-min Rain = 0
KCL1 110301Z 14007KT 19/11 A3024 RMK A01 T01890107  RH  059%=      5-min Rain = 0
KCL1 110302Z 14007KT 19/11 A3024 RMK A01 T01890107  RH  059%=      5-min Rain = 0
KCL1 110303Z 14007KT 19/11 A3024 RMK A01 T01890106  RH  059%=      5-min Rain = 0
KCL1 110304Z 14008KT 19/11 A3024 RMK A01 T01890106  RH  058%=      5-min Rain = 0
KCL1 110305Z 14007KT 19/11 A3024 RMK A01 T01900106  RH  058%=      5-min Rain = 0
KCL1 110306Z 14008KT 19/11 A3024 RMK A01 T01900106  RH  058%=      5-min Rain = 0
KCL1 110307Z 14008KT 19/11 A3025 RMK A01 T01910106  RH  058%=      5-min Rain = 0
KCL1 110308Z 14008KT 19/11 A3025 RMK A01 T01910107  RH  058%=      5-min Rain = 0
KCL1 110309Z 14007KT 19/11 A3025 RMK A01 T01910106  RH  058%=      5-min Rain = 0
KCL1 110310Z 14008KT 19/11 A3025 RMK A01 T01910106  RH  058%=      5-min Rain = 0
KCL1 110311Z 14008KT 19/11 A3025 RMK A01 T01910106  RH  058%=      5-min Rain = 0
KCL1 110312Z 14008KT 19/11 A3025 RMK A01 T01910106  RH  058%=      5-min Rain = 0
KCL1 110313Z 14008KT 19/11 A3025 RMK A01 T01920106  RH  057%=      5-min Rain = 0
KCL1 110314Z 14008KT 19/11 A3025 RMK A01 T01920105  RH  057%=      5-min Rain = 0
KCL1 110315Z 14008KT 19/11 A3025 RMK A01 T01920105  RH  057%=      5-min Rain = 0
KCL1 110316Z 14008KT 19/11 A3025 RMK A01 T01930106  RH  057%=      5-min Rain = 0
KCL1 110317Z 14007KT 19/11 A3025 RMK A01 T01930106  RH  057%=      5-min Rain = 0
KCL1 110318Z 14008KT 19/11 A3025 RMK A01 T01920106  RH  057%=      5-min Rain = 0
KCL1 110319Z 14008KT 19/11 A3025 RMK A01 T01920105  RH  057%=      5-min Rain = 0
KCL1 110320Z 14007KT 19/11 A3025 RMK A01 T01920105  RH  057%=      5-min Rain = 0
KCL1 110321Z 13007KT 19/11 A3025 RMK A01 T01920105  RH  057%=      5-min Rain = 0
KCL1 110322Z 14007KT 19/11 A3025 RMK A01 T01910105  RH  057%=      5-min Rain = 0
KCL1 110323Z 14008KT 19/11 A3025 RMK A01 T01910105  RH  057%=      5-min Rain = 0
KCL1 110324Z 14007KT 19/11 A3025 RMK A01 T01910105  RH  057%=      5-min Rain = 0
KCL1 110325Z 14007KT 19/11 A3025 RMK A01 T01900105  RH  058%=      5-min Rain = 0
KCL1 110326Z 14007KT 19/11 A3025 RMK A01 T01900105  RH  058%=      5-min Rain = 0
KCL1 110327Z 13008KT 19/11 A3025 RMK A01 T01890105  RH  058%=      5-min Rain = 0
KCL1 110328Z 14007KT 19/11 A3025 RMK A01 T01880105  RH  058%=      5-min Rain = 0
KCL1 110329Z 14007KT 19/11 A3025 RMK A01 T01880105  RH  058%=      5-min Rain = 0
KCL1 110330Z 14007KT 19/11 A3025 RMK A01 T01870105  RH  059%=      5-min Rain = 0
KCL1 110331Z 14007KT 19/11 A3025 RMK A01 T01860105  RH  059%=      5-min Rain = 0
KCL1 110332Z 13007KT 19/10 A3025 RMK A01 T01860104  RH  059%=      5-min Rain = 0
KCL1 110333Z 14007KT 19/10 A3025 RMK A01 T01850104  RH  059%=      5-min Rain = 0
KCL1 110334Z 14007KT 19/10 A3025 RMK A01 T01850104  RH  059%=      5-min Rain = 0
KCL1 110335Z 14007KT 19/10 A3025 RMK A01 T01850104  RH  059%=      5-min Rain = 0
KCL1 110336Z 14007KT 19/10 A3025 RMK A01 T01850104  RH  059%=      5-min Rain = 0
KCL1 110337Z 14007KT 18/10 A3025 RMK A01 T01840104  RH  059%=      5-min Rain = 0
KCL1 110338Z 14008KT 18/10 A3025 RMK A01 T01840104  RH  060%=      5-min Rain = 0
KCL1 110339Z 14007KT 18/10 A3025 RMK A01 T01840104  RH  060%=      5-min Rain = 0
KCL1 110340Z 14008KT 18/10 A3025 RMK A01 T01840104  RH  060%=      5-min Rain = 0
KCL1 110341Z 14007KT 18/10 A3025 RMK A01 T01840104  RH  060%=      5-min Rain = 0
KCL1 110342Z 14007KT 18/10 A3025 RMK A01 T01830104  RH  060%=      5-min Rain = 0
KCL1 110343Z 14007KT 18/10 A3025 RMK A01 T01830103  RH  060%=      5-min Rain = 0
KCL1 110344Z 14007KT 18/10 A3025 RMK A01 T01840104  RH  060%=      5-min Rain = 0
KCL1 110345Z 14007KT 18/10 A3025 RMK A01 T01840104  RH  060%=      5-min Rain = 0
KCL1 110346Z 14007KT 18/10 A3025 RMK A01 T01840104  RH  060%=      5-min Rain = 0
KCL1 110347Z 14007KT 18/10 A3025 RMK A01 T01830103  RH  060%=      5-min Rain = 0
KCL1 110348Z 14007KT 18/10 A3025 RMK A01 T01830103  RH  060%=      5-min Rain = 0
KCL1 110349Z 14007KT 18/10 A3025 RMK A01 T01840103  RH  059%=      5-min Rain = 0
KCL1 110350Z 14007KT 18/10 A3025 RMK A01 T01840103  RH  059%=      5-min Rain = 0
KCL1 110351Z 14007KT 19/10 A3025 RMK A01 T01850104  RH  059%=      5-min Rain = 0
KCL1 110352Z 14007KT 19/10 A3025 RMK A01 T01850103  RH  059%=      5-min Rain = 0
KCL1 110353Z 14007KT 18/10 A3025 RMK A01 T01840103  RH  059%=      5-min Rain = 0
KCL1 110354Z 14007KT 18/10 A3025 RMK A01 T01840103  RH  059%=      5-min Rain = 0
KCL1 110355Z 14007KT 18/10 A3025 RMK A01 T01840103  RH  059%=      5-min Rain = 0
KCL1 110356Z 14008KT 18/10 A3025 RMK A01 T01830103  RH  060%=      5-min Rain = 0
KCL1 110357Z 14007KT 18/10 A3025 RMK A01 T01830103  RH  060%=      5-min Rain = 0
KCL1 110358Z 13008KT 18/10 A3025 RMK A01 T01830103  RH  060%=      5-min Rain = 0
KCL1 110359Z 13008KT 18/10 A3025 RMK A01 T01820103  RH  060%=      5-min Rain = 0
KCL1 110400Z 13008KT 18/10 A3025 RMK A01 T01820103  RH  060%=      5-min Rain = 0
KCL1 110401Z 13008KT 18/10 A3025 RMK A01 T01820103  RH  060%=      5-min Rain = 0
KCL1 110402Z 13008KT 18/10 A3025 RMK A01 T01820103  RH  060%=      5-min Rain = 0
KCL1 110403Z 13008KT 18/10 A3025 RMK A01 T01820102  RH  060%=      5-min Rain = 0
KCL1 110404Z 13008KT 18/10 A3025 RMK A01 T01820102  RH  059%=      5-min Rain = 0
KCL1 110405Z 13008KT 18/10 A3025 RMK A01 T01820102  RH  059%=      5-min Rain = 0
KCL1 110406Z 13008KT 18/10 A3025 RMK A01 T01820102  RH  059%=      5-min Rain = 0
KCL1 110407Z 13008KT 18/10 A3025 RMK A01 T01820102  RH  059%=      5-min Rain = 0
KCL1 110408Z 13008KT 18/10 A3025 RMK A01 T01820102  RH  059%=      5-min Rain = 0
KCL1 110409Z 13008KT 18/10 A3025 RMK A01 T01820102  RH  059%=      5-min Rain = 0
KCL1 110410Z 13008KT 18/10 A3026 RMK A01 T01820101  RH  059%=      5-min Rain = 0
KCL1 110411Z 13008KT 18/10 A3026 RMK A01 T01820101  RH  059%=      5-min Rain = 0
KCL1 110412Z 13008KT 18/10 A3026 RMK A01 T01820101  RH  059%=      5-min Rain = 0
KCL1 110413Z 13007KT 18/10 A3026 RMK A01 T01820101  RH  059%=      5-min Rain = 0
KCL1 110414Z 13008KT 18/10 A3026 RMK A01 T01820101  RH  059%=      5-min Rain = 0
KCL1 110415Z 13008KT 18/10 A3026 RMK A01 T01820101  RH  059%=      5-min Rain = 0
KCL1 110416Z 13009KT 18/10 A3026 RMK A01 T01820100  RH  059%=      5-min Rain = 0
KCL1 110417Z 14008KT 18/10 A3026 RMK A01 T01830100  RH  059%=      5-min Rain = 0
KCL1 110418Z 13008KT 18/10 A3026 RMK A01 T01830100  RH  059%=      5-min Rain = 0
KCL1 110419Z 13008KT 18/10 A3026 RMK A01 T01830100  RH  058%=      5-min Rain = 0
KCL1 110420Z 14008KT 18/10 A3026 RMK A01 T01820100  RH  058%=      5-min Rain = 0
KCL1 110421Z 13008KT 18/10 A3026 RMK A01 T01820100  RH  059%=      5-min Rain = 0
KCL1 110422Z 13008KT 18/10 A3026 RMK A01 T01820100  RH  059%=      5-min Rain = 0
KCL1 110423Z 13007KT 18/10 A3026 RMK A01 T01810100  RH  059%=      5-min Rain = 0
KCL1 110424Z 13008KT 18/10 A3026 RMK A01 T01810099  RH  059%=      5-min Rain = 0
KCL1 110425Z 13009KT 18/10 A3026 RMK A01 T01810099  RH  059%=      5-min Rain = 0
KCL1 110426Z 13008KT 18/10 A3026 RMK A01 T01810098  RH  058%=      5-min Rain = 0
KCL1 110427Z 14008KT 18/10 A3026 RMK A01 T01810098  RH  058%=      5-min Rain = 0
KCL1 110428Z 14008KT 18/10 A3026 RMK A01 T01810097  RH  058%=      5-min Rain = 0
KCL1 110429Z 13008KT 18/10 A3026 RMK A01 T01820098  RH  058%=      5-min Rain = 0
KCL1 110430Z 13008KT 18/10 A3026 RMK A01 T01830098  RH  058%=      5-min Rain = 0
KCL1 110431Z 14008KT 18/10 A3026 RMK A01 T01820097  RH  058%=      5-min Rain = 0
KCL1 110432Z 14007KT 18/10 A3026 RMK A01 T01820097  RH  058%=      5-min Rain = 0
KCL1 110433Z 13008KT 18/10 A3026 RMK A01 T01820097  RH  058%=      5-min Rain = 0
KCL1 110434Z 13009KT 18/10 A3026 RMK A01 T01810097  RH  058%=      5-min Rain = 0
KCL1 110435Z 13008KT 18/10 A3026 RMK A01 T01810097  RH  058%=      5-min Rain = 0
KCL1 110436Z 13008KT 18/10 A3026 RMK A01 T01810097  RH  058%=      5-min Rain = 0
KCL1 110437Z 13008KT 18/10 A3026 RMK A01 T01810097  RH  058%=      5-min Rain = 0
KCL1 110438Z 13008KT 18/10 A3026 RMK A01 T01810097  RH  058%=      5-min Rain = 0
KCL1 110439Z 13009KT 18/10 A3026 RMK A01 T01810097  RH  058%=      5-min Rain = 0
KCL1 110440Z 13008KT 18/10 A3026 RMK A01 T01800096  RH  058%=      5-min Rain = 0
KCL1 110441Z 13009KT 18/10 A3026 RMK A01 T01800096  RH  058%=      5-min Rain = 0
KCL1 110442Z 13009KT 18/10 A3026 RMK A01 T01810096  RH  057%=      5-min Rain = 0
KCL1 110443Z 13008KT 18/10 A3026 RMK A01 T01820096  RH  057%=      5-min Rain = 0
KCL1 110444Z 12009KT 18/10 A3026 RMK A01 T01820096  RH  057%=      5-min Rain = 0
KCL1 110445Z 13008KT 18/10 A3026 RMK A01 T01810096  RH  057%=      5-min Rain = 0
KCL1 110446Z 13009KT 18/10 A3026 RMK A01 T01810096  RH  058%=      5-min Rain = 0
KCL1 110447Z 13009KT 18/10 A3026 RMK A01 T01810096  RH  058%=      5-min Rain = 0
KCL1 110448Z 12010KT 18/10 A3026 RMK A01 T01800096  RH  058%=      5-min Rain = 0
KCL1 110449Z 13009KT 18/10 A3026 RMK A01 T01800096  RH  058%=      5-min Rain = 0
KCL1 110450Z 12009KT 18/10 A3026 RMK A01 T01800096  RH  058%=      5-min Rain = 0
KCL1 110451Z 12009KT 18/10 A3026 RMK A01 T01800095  RH  058%=      5-min Rain = 0
KCL1 110452Z 12010KT 18/10 A3026 RMK A01 T01800095  RH  058%=      5-min Rain = 0
KCL1 110453Z 12009KT 18/10 A3026 RMK A01 T01800096  RH  058%=      5-min Rain = 0
KCL1 110454Z 12010KT 18/10 A3026 RMK A01 T01800096  RH  058%=      5-min Rain = 0
KCL1 110455Z 12010KT 18/10 A3026 RMK A01 T01800096  RH  058%=      5-min Rain = 0
KCL1 110456Z 12009KT 18/10 A3026 RMK A01 T01800096  RH  058%=      5-min Rain = 0
KCL1 110457Z 12009KT 18/10 A3026 RMK A01 T01800096  RH  058%=      5-min Rain = 0
KCL1 110458Z 12009KT 18/10 A3026 RMK A01 T01800095  RH  058%=      5-min Rain = 0
KCL1 110459Z 12010KT 18/10 A3026 RMK A01 T01800095  RH  057%=      5-min Rain = 0

Page generated in 0.1343 seconds.